GFSCGP_sfc_dewp_000.txt.gz
Dewpoint
34 30 28 26 26 24 27 23 22 23 28 28 27 27 29 34 35 34 33 32 32 32 34 32 29 25 25 25 24 25 27 26 28 31 31 31 32 31 34 34 33 33 36 37
32 28 28 27 29 25 25 23 21 24 29 29 29 28 27 27 34 34 33 32 32 33 33 33 30 25 24 24 23 24 25 28 29 32 32 31 29 32 33 37 34 35 34 35
27 28 26 26 29 25 26 23 21 20 30 28 28 27 26 25 25 33 34 33 33 33 32 32 30 27 26 24 25 25 25 27 30 29 32 33 33 35 35 34 35 35 32 34
27 26 24 26 22 23 22 26 23 26 25 22 26 22 23 22 26 24 28 33 33 33 33 33 30 27 24 26 27 27 27 25 28 30 31 31 32 32 32 33 34 33 32 31
27 27 26 25 22 22 26 33 31 29 26 25 24 24 22 24 25 24 24 28 34 34 33 34 32 29 24 26 28 27 27 26 28 27 31 33 33 33 34 32 31 30 31 32
25 29 26 24 26 28 31 30 33 32 29 25 22 22 21 22 21 24 25 27 32 34 33 35 33 33 26 28 32 32 29 28 29 30 30 31 31 31 31 31 31 32 33 34
26 24 26 26 28 33 31 28 26 28 29 25 22 19 19 22 23 21 24 28 31 33 34 35 32 33 30 31 34 33 33 33 30 30 29 27 30 31 30 29 30 30 31 33
23 21 25 24 26 27 28 26 23 18 21 22 24 22 20 21 24 24 27 29 32 33 34 34 32 33 31 31 33 32 32 32 30 28 27 27 26 33 32 30 31 31 32 32
21 21 25 24 25 25 28 27 27 23 21 20 20 20 20 19 23 25 25 28 33 33 34 33 32 33 33 31 31 32 32 31 30 28 26 22 21 24 30 29 29 31 31 33
24 21 25 27 27 27 26 31 26 26 18 15 16 16 21 19 21 21 23 27 32 34 33 32 31 32 33 31 31 31 30 29 29 27 23 21 22 23 25 28 29 29 31 32
26 26 28 29 27 25 28 27 27 27 21 16 13 18 17 16 16 21 21 24 30 34 33 31 30 30 32 31 30 29 27 26 25 24 22 22 23 24 23 24 27 28 31 30
27 29 25 26 29 28 26 24 25 21 19 21 19 19 22 23 15 17 19 24 29 33 34 32 30 29 29 29 27 26 25 24 25 25 22 22 23 24 24 24 24 27 27 29
32 29 25 25 29 31 27 26 24 24 23 20 18 19 20 19 21 21 20 24 27 31 33 32 30 28 27 26 26 24 24 24 24 20 21 23 24 24 25 26 26 26 26 27
43 31 26 24 25 29 27 26 26 25 22 21 22 22 23 22 20 23 24 25 26 28 31 31 30 27 26 24 22 22 22 24 23 22 22 23 24 24 27 27 27 27 27 27
37 29 27 27 27 27 27 27 26 25 25 23 22 23 24 25 27 21 24 25 25 27 29 30 31 29 26 24 21 21 21 20 19 20 22 24 24 26 26 26 28 28 28 27
41 37 34 27 27 27 26 27 28 26 25 25 25 25 26 27 26 25 23 24 25 25 28 29 30 29 28 23 22 21 21 19 19 20 21 23 26 24 26 28 28 27 28 29
36 37 37 35 30 27 26 27 28 28 28 26 25 26 28 28 28 28 28 26 25 26 28 29 29 29 28 25 23 21 19 18 18 18 18 21 22 24 26 27 27 28 29 29
35 35 35 33 37 28 29 30 29 30 29 29 28 29 30 31 33 32 29 30 25 27 27 29 30 30 29 28 24 20 18 17 17 18 19 20 21 23 26 26 28 28 28 29
39 37 34 33 33 35 31 31 31 30 30 33 30 30 30 31 34 33 29 26 28 27 27 28 30 31 31 26 23 22 21 21 20 21 20 21 22 24 27 28 29 30 30 29
38 40 38 35 32 31 35 33 32 31 28 33 34 32 32 33 32 33 32 28 27 26 29 30 29 28 25 23 22 23 23 22 22 23 22 22 24 26 28 29 29 30 30 28
29 34 31 30 28 35 38 35 35 26 28 34 34 31 32 33 34 34 30 30 27 30 30 30 26 22 22 23 24 24 23 23 24 24 23 25 26 27 28 29 30 29 28 29
28 28 29 31 29 28 41 39 34 38 35 33 34 34 33 37 33 30 30 30 31 30 28 25 23 21 21 22 22 22 22 24 24 24 25 26 27 27 26 27 28 28 28 30
27 35 33 35 35 39 38 42 41 39 39 33 35 37 36 34 31 31 31 31 29 27 25 25 24 23 22 22 21 20 24 23 24 24 25 26 26 26 26 26 26 27 29 31
26 30 34 34 33 35 37 34 36 41 41 39 34 36 36 35 32 30 30 30 28 26 25 25 24 23 23 23 23 22 23 24 24 23 24 26 26 26 26 27 27 28 29 32
28 30 28 27 28 32 35 37 37 40 43 40 37 35 36 36 33 30 29 29 28 26 26 25 24 24 24 25 23 23 24 25 24 25 25 26 26 26 27 27 27 27 30 33
30 31 32 30 32 31 30 33 37 41 41 40 38 38 36 36 35 32 30 28 27 26 26 25 26 26 23 22 22 24 26 26 26 26 26 27 28 28 29 29 29 37 38 39

GFSCGP_sfc_dewp_003.txt.gz
Dewpoint
32 28 28 27 27 26 24 22 22 22 27 27 28 27 29 35 34 33 33 32 32 33 34 32 29 27 27 25 24 24 26 24 29 29 29 29 30 30 32 33 32 31 34 35
30 29 29 30 29 27 24 22 22 23 30 26 27 27 27 30 34 34 33 32 32 33 34 31 28 25 25 25 24 23 25 26 29 31 31 30 29 31 32 35 33 33 33 33
28 29 30 29 28 25 24 23 23 21 27 26 26 26 26 27 28 33 34 33 32 33 33 31 27 23 24 24 24 23 25 27 30 29 32 32 32 32 33 32 32 35 33 32
28 28 26 26 24 25 23 28 27 25 23 19 25 18 22 22 23 24 33 33 32 32 33 33 29 24 22 23 24 24 26 26 29 30 31 30 31 31 32 31 33 32 31 30
27 25 26 25 24 22 23 29 28 28 24 28 24 22 22 22 22 22 24 33 33 32 33 33 31 28 24 23 23 25 26 26 28 29 31 32 31 33 33 32 29 29 30 31
28 29 27 25 28 27 30 28 28 29 27 23 23 23 14 20 19 20 24 27 33 33 33 33 32 29 25 24 26 27 26 26 27 29 30 31 31 31 31 30 30 32 32 33
26 27 26 26 27 31 29 25 21 23 26 21 21 22 16 20 21 20 22 25 32 33 33 34 31 29 26 25 28 29 29 29 29 29 29 29 30 29 29 29 30 30 31 31
22 19 25 25 24 25 27 23 21 17 23 18 27 22 21 21 21 22 23 28 32 34 33 34 33 31 27 25 29 29 30 30 29 29 30 27 26 31 32 30 31 30 31 32
23 23 28 25 27 25 27 25 23 21 20 20 20 21 21 21 22 25 26 31 32 34 33 34 33 33 29 26 28 29 30 30 31 28 28 25 25 25 31 30 30 30 30 33
24 20 22 27 27 28 27 28 24 25 19 17 17 18 17 15 15 23 25 29 32 34 33 33 32 33 31 29 30 30 30 31 30 29 26 24 22 22 25 27 28 29 31 31
26 25 24 28 26 23 27 26 28 25 24 15 13 15 19 17 20 22 24 26 32 33 33 33 31 32 33 31 30 30 30 30 30 29 27 23 23 23 23 24 26 28 29 31
29 25 23 23 29 28 25 23 24 24 21 22 18 16 17 13 20 22 22 24 29 34 34 32 31 31 32 31 31 30 30 30 29 28 25 23 23 24 24 24 25 26 28 30
43 33 24 23 27 30 27 26 25 24 23 19 19 18 21 19 19 21 21 22 27 33 35 32 30 29 30 30 29 29 28 27 26 25 23 23 23 23 23 24 26 26 27 28
43 37 32 25 23 28 27 28 27 25 23 22 22 20 20 19 19 18 20 23 26 31 33 33 30 28 28 29 27 25 24 24 25 24 22 22 22 23 24 25 27 27 27 28
39 38 38 36 34 35 31 26 27 25 24 22 22 22 22 22 22 19 21 23 25 29 32 32 31 29 27 26 26 23 23 23 24 21 22 22 24 25 25 26 27 27 28 28
36 33 33 28 33 35 33 34 34 26 25 25 24 23 26 26 26 26 21 20 24 26 30 31 31 29 26 25 23 22 22 22 22 21 22 24 25 24 25 25 26 27 29 28
34 33 30 25 29 30 28 32 34 33 26 25 24 26 27 27 27 27 27 22 23 24 27 30 30 30 27 25 22 21 21 20 18 20 21 22 24 25 25 25 26 27 28 28
33 31 32 28 28 23 25 38 38 36 35 30 28 28 30 29 29 30 30 29 25 24 26 28 30 30 29 26 24 22 21 18 19 19 19 20 21 22 23 25 26 28 28 29
31 32 31 29 28 28 29 34 32 38 37 35 33 31 31 32 33 32 33 30 28 28 29 30 31 32 30 26 24 22 20 20 19 19 19 20 21 22 25 26 27 28 29 29
32 33 32 29 27 23 27 36 40 38 36 41 40 34 31 34 31 31 31 29 28 28 29 31 31 30 28 25 22 21 21 21 20 22 22 22 22 24 26 27 27 28 29 29
25 28 27 28 27 28 31 32 38 31 34 40 39 38 36 33 34 33 36 28 28 29 30 31 30 28 25 23 22 22 23 22 23 24 24 24 25 26 27 27 28 28 28 27
27 26 25 26 26 22 39 39 36 40 40 40 39 38 37 38 34 33 34 29 30 31 31 28 26 25 22 23 22 23 22 24 25 25 25 24 25 26 26 26 27 27 27 26
24 27 24 28 25 29 26 30 41 43 39 39 40 41 41 38 34 31 31 30 29 28 26 25 24 23 22 23 22 22 23 25 25 24 24 25 26 26 25 25 25 26 26 28
28 28 28 28 26 30 31 31 31 36 39 37 44 44 46 38 36 30 31 29 26 25 24 23 22 21 22 22 21 22 24 25 23 23 23 25 25 26 26 26 27 26 27 29
27 28 26 26 26 25 28 33 35 36 36 36 41 46 47 45 40 30 30 29 27 26 26 24 22 22 22 24 23 23 24 25 23 23 24 25 26 26 26 27 27 26 27 31
28 27 26 23 23 26 27 29 29 29 30 32 35 39 46 48 46 40 31 30 29 27 26 25 24 24 24 24 23 25 27 26 25 24 25 26 27 28 28 29 29 35 38 39

GFSCGP_sfc_dewp_006.txt.gz
Dewpoint
32 28 28 28 28 24 21 22 21 22 25 28 28 27 27 30 36 35 34 34 33 33 34 34 33 31 28 25 25 27 27 26 29 30 29 29 29 30 32 32 32 30 33 34
30 28 26 30 30 28 25 22 21 24 26 27 27 27 28 31 34 35 34 33 33 33 33 34 33 30 28 25 24 25 26 27 28 30 30 30 29 30 31 34 34 32 32 33
28 29 32 30 30 28 26 23 22 21 25 26 26 26 26 29 30 32 34 33 33 32 32 34 32 30 28 25 24 23 25 27 30 30 32 32 32 32 32 33 32 32 33 33
30 30 28 30 27 26 23 27 25 25 23 20 25 17 21 24 25 28 30 32 34 33 32 34 32 30 26 26 25 24 26 27 29 31 31 30 31 29 31 31 32 32 31 30
26 27 29 28 26 25 24 29 27 26 23 25 22 21 25 22 21 21 22 25 32 34 33 33 33 29 26 25 25 25 25 28 29 30 32 31 31 32 32 32 30 29 30 31
27 30 27 26 26 26 28 28 29 31 26 21 21 21 16 18 19 19 18 21 25 34 33 33 33 29 25 24 25 26 26 27 29 30 31 31 30 31 32 31 31 31 32 33
22 21 27 26 25 31 28 24 20 20 22 19 21 21 18 16 17 19 18 20 26 34 33 34 32 29 26 25 25 27 27 28 28 29 30 31 31 30 30 30 30 30 31 31
21 15 26 26 24 24 27 23 21 16 18 14 24 20 16 22 19 18 21 23 26 34 33 34 33 31 27 25 25 26 26 27 27 28 30 30 31 32 31 30 32 31 31 30
21 23 26 26 25 25 24 25 23 17 19 18 21 23 19 23 22 23 23 23 29 34 33 34 33 31 29 26 25 26 27 27 27 28 29 28 27 28 31 31 30 31 30 31
24 21 23 24 28 28 25 26 23 24 17 15 16 16 16 17 17 19 23 26 29 34 34 34 33 32 29 27 26 26 27 27 28 28 28 27 25 25 27 28 29 30 30 31
29 26 26 27 25 23 26 25 26 25 23 17 15 16 20 17 18 17 19 24 28 33 34 34 34 33 30 26 27 28 28 28 29 29 28 26 25 23 23 25 26 27 28 29
41 40 31 27 26 26 24 23 23 23 20 22 19 17 18 18 18 19 19 22 29 34 35 34 33 33 31 28 28 28 28 29 30 30 28 26 25 24 23 23 24 26 26 28
41 39 34 32 31 30 28 28 26 24 23 21 20 20 22 22 21 19 21 23 27 32 35 34 32 32 32 30 29 29 29 29 30 30 28 27 24 24 23 23 24 25 26 27
41 38 37 33 35 35 33 32 35 33 26 23 22 22 23 21 20 21 21 22 23 29 34 34 32 31 32 31 30 29 30 30 30 29 27 25 23 23 24 24 25 25 26 27
39 34 33 34 31 31 30 29 30 33 32 29 31 29 25 25 25 24 23 21 23 27 33 34 33 31 31 31 30 30 30 29 29 27 26 24 23 24 24 25 26 26 26 26
37 28 30 29 29 27 24 27 30 32 28 31 33 32 32 28 26 25 24 20 21 24 29 33 33 31 29 29 30 28 27 27 26 25 24 23 24 24 25 25 25 25 26 28
29 30 26 22 23 23 22 23 27 25 26 30 32 38 35 34 34 28 26 26 22 21 25 30 33 31 30 29 29 26 25 25 23 22 22 23 24 25 25 25 25 26 26 27
30 29 28 24 24 19 23 25 26 26 26 36 39 39 38 38 37 36 33 28 27 23 24 28 31 32 31 29 28 26 24 23 22 21 21 21 23 25 25 24 25 26 27 27
31 33 30 26 23 25 26 26 34 35 35 36 36 38 37 37 37 35 34 36 33 28 26 27 30 32 30 28 26 25 23 22 21 20 19 21 22 22 23 25 26 27 27 27
25 31 29 23 15 15 17 28 35 37 29 39 39 37 37 37 32 35 39 39 39 34 31 28 30 31 28 26 24 23 23 21 19 19 20 21 22 23 25 26 26 27 28 28
26 27 26 26 24 27 32 34 36 23 29 39 38 36 37 37 38 41 43 42 35 32 32 32 32 30 27 25 24 23 21 20 20 22 23 23 23 24 26 26 27 27 27 28
26 25 23 25 23 16 37 26 25 30 36 39 37 35 39 41 42 43 44 41 32 32 34 32 29 27 23 23 22 22 20 23 24 24 25 24 25 25 26 26 26 26 27 26
22 26 24 27 22 27 29 28 32 33 29 35 35 36 42 41 43 45 43 42 28 30 30 29 26 23 23 22 22 20 23 24 25 25 24 24 25 25 26 26 25 26 26 27
26 28 29 31 29 27 27 27 28 28 32 35 35 36 42 41 43 44 42 43 32 28 27 26 24 23 22 22 21 22 24 25 24 23 24 25 25 26 25 26 26 26 27 27
28 28 26 26 26 26 27 26 27 30 31 30 32 32 35 42 44 43 43 43 42 26 26 26 24 23 23 23 23 23 25 25 23 22 23 25 26 29 27 26 26 26 27 28
29 27 27 25 26 25 24 26 28 30 30 28 28 29 35 41 43 44 44 45 44 27 25 25 24 24 23 23 23 25 27 24 23 23 25 26 27 27 28 28 29 33 36 37

GFSCGP_sfc_dewp_009.txt.gz
Dewpoint
32 27 26 27 28 22 19 21 18 20 23 28 28 27 27 28 36 36 36 36 35 34 34 34 34 34 31 27 25 26 28 29 29 30 30 30 30 30 32 33 33 31 33 34
30 28 26 29 30 29 27 22 21 23 24 27 26 26 28 28 32 31 34 35 35 35 35 35 34 33 31 27 25 26 27 28 29 31 30 29 29 30 31 34 33 33 32 33
28 26 32 29 27 27 26 24 22 19 23 26 26 24 26 28 29 31 33 32 33 34 34 34 34 33 31 27 25 25 26 27 29 30 32 31 32 32 33 33 33 32 32 33
29 29 27 29 28 27 22 28 27 25 24 22 25 17 18 24 26 28 29 30 33 34 34 34 34 33 31 28 26 25 27 26 29 31 31 30 31 29 31 32 32 32 31 30
25 27 28 30 25 28 27 28 29 29 25 25 23 20 23 22 21 21 21 26 29 31 34 33 33 34 32 30 25 25 27 27 28 30 31 31 30 30 31 31 30 30 30 30
24 28 28 27 28 29 29 27 29 30 26 21 21 21 17 14 19 19 20 21 22 25 30 34 33 34 33 30 27 26 26 27 29 30 31 30 30 31 31 31 31 31 31 32
21 23 27 24 24 29 27 23 22 20 22 19 20 20 17 16 19 19 19 19 19 21 28 34 33 34 32 30 28 27 27 28 29 29 30 30 30 30 30 31 31 31 31 31
21 19 22 25 23 23 26 23 21 17 17 14 23 20 16 20 21 21 20 19 20 23 33 34 34 34 30 28 27 28 27 27 28 29 30 30 30 32 32 31 32 31 32 31
21 21 25 25 25 25 23 24 24 20 19 17 16 20 20 23 24 24 23 23 24 24 33 34 34 33 30 26 26 27 27 27 28 28 29 29 30 32 32 31 30 32 31 32
29 25 26 27 27 27 24 26 22 23 18 17 17 16 16 17 16 17 21 22 24 27 32 34 34 33 30 26 26 27 27 27 27 28 28 28 28 29 30 30 30 31 31 31
40 34 33 31 29 28 27 25 25 24 23 19 17 18 19 18 19 18 18 18 22 24 30 34 34 33 31 28 27 26 26 26 27 27 28 28 28 27 27 27 29 30 30 30
41 40 34 34 35 33 30 25 28 26 25 25 21 20 19 18 19 19 19 20 22 27 31 34 34 32 31 28 28 27 27 26 27 28 28 28 27 26 24 25 25 27 27 29
39 36 29 26 30 34 34 31 31 32 33 31 26 25 27 31 32 34 29 22 23 25 31 35 34 33 30 28 27 27 27 27 28 28 28 28 27 25 23 23 24 25 25 26
36 35 32 27 30 31 29 29 29 30 28 26 27 28 27 28 30 34 34 31 23 23 29 34 34 33 32 29 27 28 28 28 29 29 28 28 26 25 24 23 24 25 25 25
34 27 26 25 25 25 25 29 29 27 28 27 22 19 21 24 33 36 37 37 36 32 25 32 34 33 33 32 29 28 28 29 29 29 29 28 27 25 24 25 25 25 26 26
32 27 26 24 24 24 23 23 24 27 24 23 26 29 32 32 39 37 37 37 37 35 34 27 32 33 32 32 31 29 29 29 29 29 29 28 27 25 24 25 25 25 26 26
26 26 24 22 23 22 21 21 20 21 22 23 26 31 38 38 36 35 35 36 36 38 39 39 33 33 32 32 32 31 30 30 29 28 28 27 25 24 24 25 26 25 25 26
26 25 27 24 25 18 22 24 26 26 25 30 35 39 38 35 36 35 34 36 37 39 41 42 41 35 34 32 32 31 30 29 28 27 26 25 24 24 24 25 25 25 26 27
28 27 26 19 18 20 21 23 26 27 28 38 31 32 36 36 37 32 34 37 40 42 43 42 41 39 33 32 32 30 28 28 27 25 24 23 23 23 24 24 24 26 27 27
27 30 25 22 19 16 21 23 30 29 25 32 25 32 32 36 32 31 36 39 42 42 42 40 33 32 32 32 30 28 27 26 25 23 23 22 22 23 24 24 25 27 27 27
22 24 22 20 18 20 23 29 33 21 23 27 30 33 33 35 36 36 40 42 43 41 42 39 32 32 32 29 28 27 25 25 24 23 22 22 22 23 23 25 27 27 27 27
22 18 18 18 16 15 31 26 24 28 32 31 31 30 34 36 37 39 41 43 43 41 42 36 32 31 28 26 26 25 24 24 23 23 23 22 22 22 25 26 27 26 27 26
22 24 22 24 23 25 25 28 30 32 32 30 30 33 32 32 33 37 38 43 42 42 42 33 28 25 25 25 25 23 23 23 23 22 22 22 23 25 26 26 26 26 26 26
25 27 28 29 27 27 28 28 28 29 29 30 31 31 32 32 33 30 33 43 43 43 44 29 26 24 23 23 22 23 23 24 22 22 23 24 24 26 26 26 26 26 26 27
27 28 27 29 29 29 28 28 28 28 29 30 30 32 32 31 31 33 37 43 44 45 45 33 31 25 24 24 23 24 24 23 22 22 24 25 26 27 26 27 26 26 26 28
30 28 28 27 26 28 27 28 29 29 29 29 29 29 30 31 32 32 34 43 45 46 46 40 29 32 25 24 24 26 26 24 23 22 24 25 27 29 28 27 28 34 35 38

GFSCGP_sfc_dewp_015.txt.gz
Dewpoint
33 27 22 26 31 26 21 21 21 22 23 23 23 23 25 27 30 32 31 29 29 30 33 35 37 38 39 41 40 38 39 37 37 36 34 34 34 33 35 36 35 38 39 38
28 26 24 25 28 29 27 25 24 26 27 25 25 23 24 26 25 26 28 28 28 29 31 34 36 37 37 39 39 36 37 38 36 38 35 33 32 33 34 38 36 37 38 38
21 18 30 27 27 26 26 23 22 20 24 25 25 21 23 25 26 27 28 29 28 29 29 31 35 36 38 38 38 37 35 37 37 37 36 34 34 34 34 35 36 36 35 38
28 29 27 28 26 26 24 26 24 23 23 19 24 16 20 18 20 26 29 30 31 32 32 33 35 37 37 38 39 37 36 35 36 37 35 33 34 33 34 35 36 36 34 35
22 27 29 29 28 28 27 28 27 27 26 25 24 22 16 22 20 21 22 25 29 31 32 31 33 37 37 38 38 37 35 35 36 34 37 36 36 36 34 34 35 35 35 34
26 29 28 25 28 30 30 27 28 30 28 24 21 21 17 17 18 20 21 23 25 24 26 29 32 36 38 40 41 40 36 35 36 36 36 37 36 34 34 34 34 34 35 35
23 22 27 29 25 28 27 25 21 19 23 20 22 21 18 19 20 20 20 23 27 32 32 31 29 31 36 41 42 39 38 36 35 35 35 35 37 35 34 33 34 34 33 34
24 23 24 31 30 29 26 26 21 16 15 17 21 20 18 20 23 28 31 31 32 34 35 35 35 35 34 37 41 39 36 35 34 34 34 34 36 35 34 34 34 33 34 33
35 29 33 32 34 29 26 25 26 23 25 22 22 22 23 23 27 27 25 23 25 30 33 36 38 37 36 35 37 37 35 34 33 32 33 32 32 34 35 34 34 35 33 33
37 28 34 35 33 30 33 31 26 27 22 19 21 22 23 26 28 27 24 22 21 30 35 37 38 38 37 35 36 34 33 32 32 32 32 32 32 32 34 34 33 34 33 33
36 36 26 28 25 28 24 22 20 27 26 24 22 24 29 27 28 20 15 23 25 33 36 37 38 38 37 36 33 32 31 31 31 31 32 32 31 31 31 31 32 33 34 34
32 35 24 20 23 24 25 29 22 21 18 22 21 19 24 26 17 16 24 23 26 29 34 38 37 38 39 38 34 31 31 30 31 32 31 31 31 32 31 30 30 31 32 33
29 26 18 5 14 19 19 20 19 22 26 19 14 10 13 17 18 22 25 29 29 34 37 35 34 38 40 41 38 32 30 31 31 30 30 31 31 31 31 30 30 30 30 31
32 30 25 16 18 26 22 22 23 23 21 20 19 19 20 22 24 32 34 36 34 35 35 35 37 38 40 42 41 36 31 29 31 30 30 32 31 32 32 31 30 29 28 29
30 26 24 23 23 24 24 24 23 21 22 21 21 21 23 27 32 30 30 31 32 33 35 36 36 37 39 42 41 41 34 30 29 29 30 31 31 32 31 31 30 28 28 27
30 24 25 24 23 21 20 21 22 22 21 20 22 24 30 33 31 29 29 30 32 34 35 36 35 36 39 41 41 42 41 33 29 29 29 32 31 31 31 31 29 28 29 26
27 25 23 20 20 20 20 20 14 13 16 18 21 26 32 32 29 27 29 31 32 34 34 34 33 36 38 41 41 42 41 38 30 28 28 30 30 31 30 29 29 30 29 26
27 27 25 21 21 13 16 17 18 19 21 23 25 33 31 30 30 30 30 28 33 31 31 32 33 35 40 43 42 42 42 34 33 29 28 29 29 30 29 29 29 28 27 28
30 28 24 20 17 18 18 17 17 19 23 27 29 28 28 29 31 28 28 29 30 31 32 32 33 36 41 43 42 42 36 32 33 30 29 29 29 30 29 29 29 28 27 28
27 28 25 21 17 14 14 17 22 27 21 29 28 29 29 30 28 27 29 30 31 31 32 33 34 34 40 43 43 36 30 30 33 31 30 30 29 29 29 31 30 29 28 28
21 22 21 20 20 20 21 22 31 19 21 29 31 31 31 30 31 31 31 31 31 33 33 33 34 37 43 44 40 32 27 27 33 33 31 31 30 30 30 31 29 29 28 28
21 20 19 20 18 15 24 24 22 27 29 30 32 32 32 32 32 32 32 32 33 33 33 34 35 42 44 43 36 26 25 28 36 33 32 30 30 28 28 30 29 27 28 28
21 24 22 24 22 25 24 24 29 31 31 32 32 33 32 32 32 32 33 33 32 33 34 34 38 44 43 42 32 25 26 32 36 33 31 29 28 27 27 27 27 27 28 28
24 26 28 27 25 25 26 28 30 32 32 33 34 33 33 32 32 32 33 33 33 33 34 35 40 43 43 40 29 26 27 31 31 30 28 27 27 26 26 26 26 27 28 28
24 26 27 27 27 28 30 31 33 33 32 31 31 32 32 33 34 33 33 33 33 34 34 37 40 44 43 38 32 28 26 27 27 26 25 25 27 25 25 25 26 26 27 29
27 26 27 26 31 33 33 35 35 31 30 29 29 31 33 34 33 32 33 33 33 33 35 37 40 44 41 38 35 34 27 25 24 23 25 26 25 26 27 28 29 33 34 35

GFSCGP_sfc_dewp_018.txt.gz
Dewpoint
31 22 16 12 19 16 16 15 16 16 17 19 21 20 20 21 21 22 23 22 17 14 16 20 27 33 37 40 41 46 52 52 51 48 45 42 41 39 39 38 37 38 39 39
24 20 23 22 21 24 22 18 16 16 16 19 19 20 23 23 23 23 23 21 21 23 21 23 22 31 35 36 39 41 46 52 51 49 47 44 41 40 39 40 38 39 39 38
19 19 25 22 21 22 21 21 18 17 20 23 23 22 19 19 22 23 23 25 25 26 26 26 29 31 37 37 38 40 41 46 50 47 47 44 41 40 39 39 38 38 38 38
24 26 24 25 23 23 22 23 23 25 25 19 24 17 20 17 19 18 19 21 24 28 28 30 31 32 32 37 40 39 41 41 46 48 46 43 41 39 39 39 39 37 36 37
20 21 23 24 23 25 22 29 26 26 25 25 24 23 13 15 19 19 23 29 32 33 34 32 33 35 36 37 37 39 39 40 42 44 47 45 43 43 40 37 38 37 36 35
25 26 25 24 25 26 26 26 27 29 27 21 17 21 15 15 17 21 26 29 27 24 28 29 32 34 35 40 42 41 40 40 42 45 45 46 45 42 40 39 38 37 36 35
24 24 24 28 27 29 29 27 19 17 22 17 20 18 16 17 23 27 26 25 23 22 23 28 31 34 36 40 42 40 41 42 40 41 43 43 46 44 41 38 38 37 36 36
28 19 24 32 30 29 29 27 20 14 8 12 18 18 15 18 22 29 29 26 20 17 21 26 31 34 35 38 40 40 39 41 41 39 40 40 43 44 40 39 38 37 37 37
30 27 29 25 31 31 26 26 30 28 24 19 18 18 17 17 23 21 22 23 17 20 24 24 27 32 36 37 39 40 38 39 39 38 37 37 38 41 41 39 37 38 36 36
30 18 18 31 25 29 17 19 13 13 5 5 5 10 12 19 15 12 12 15 19 24 26 26 32 34 35 37 39 41 38 35 37 37 36 36 37 37 39 38 37 38 36 36
21 21 19 15 10 8 11 14 20 22 18 14 14 14 16 10 3 3 13 21 26 29 31 33 33 34 36 38 39 41 40 36 34 35 36 36 36 35 35 36 36 37 36 35
21 16 8 9 9 14 17 26 16 16 15 14 16 14 7 3 5 13 18 27 30 31 32 32 33 34 34 37 39 41 41 39 36 35 35 34 35 35 34 34 34 34 35 35
23 16 13 3 20 19 11 16 15 16 26 21 16 14 13 12 13 18 22 28 28 29 30 30 31 33 34 33 37 39 41 42 38 34 33 34 34 34 34 33 33 32 32 32
28 22 17 15 15 19 19 17 16 17 21 18 16 13 12 14 19 23 26 28 26 28 28 29 34 32 29 29 33 38 39 41 42 35 34 34 33 34 34 34 33 31 30 30
26 20 19 19 18 18 18 18 17 17 17 17 17 12 13 14 21 24 28 26 25 27 28 31 30 28 27 28 31 37 39 40 41 37 34 34 34 34 34 34 32 30 30 29
24 23 23 21 19 18 17 17 17 17 17 13 9 14 14 19 27 28 25 26 26 26 28 29 27 28 30 30 32 37 40 41 41 40 35 34 33 33 34 34 32 31 31 29
26 24 23 20 18 16 16 13 9 10 11 11 14 19 22 28 27 26 26 26 25 25 26 28 29 31 32 33 34 36 39 41 41 40 35 34 32 33 33 33 33 35 33 29
25 24 26 22 20 14 12 13 13 15 14 16 19 25 29 27 27 27 27 25 25 27 29 29 30 32 34 34 35 37 40 41 41 37 34 34 32 32 33 33 34 32 31 31
26 27 25 21 17 15 12 10 12 15 17 21 23 26 26 27 29 27 26 27 28 30 31 31 32 33 32 33 35 39 41 41 40 37 33 33 33 32 33 34 34 32 31 31
25 27 26 20 20 17 13 15 18 25 20 26 26 26 28 29 29 29 29 30 31 30 31 32 33 31 30 31 34 42 41 41 38 33 30 32 33 32 34 35 36 34 33 31
18 22 25 23 21 20 17 17 23 18 20 26 27 29 30 29 30 30 32 31 31 31 31 31 32 31 32 32 37 41 41 39 36 32 28 29 34 33 33 34 34 34 32 31
20 20 18 19 19 15 21 21 20 25 29 28 30 31 30 30 30 29 29 30 31 31 31 31 31 32 32 34 39 42 39 36 31 28 28 30 34 32 31 34 35 32 32 31
20 20 21 22 21 22 23 25 29 31 30 35 34 32 29 28 28 28 30 29 30 30 31 31 31 32 33 35 42 36 35 32 27 28 32 36 33 32 31 32 33 31 31 30
19 22 26 25 24 22 24 27 29 33 34 34 33 30 30 28 28 28 30 31 30 31 31 32 31 31 32 38 38 35 35 30 25 29 35 37 33 32 30 31 30 30 30 29
23 23 23 23 24 27 30 32 34 33 32 32 29 27 28 29 28 28 31 31 31 31 32 32 32 32 33 37 38 37 34 27 26 29 35 34 34 30 29 30 29 29 28 29
25 23 25 27 29 35 36 34 31 31 30 28 28 29 28 27 28 29 32 31 31 31 32 33 31 31 31 36 40 41 36 29 25 27 32 35 29 29 29 29 28 40 38 40

GFSCGP_sfc_dewp_021.txt.gz
Dewpoint
27 21 16 14 18 14 14 13 11 13 16 17 18 20 21 23 23 24 23 20 19 18 20 20 22 19 20 28 32 37 42 48 54 53 48 46 46 45 45 44 41 41 41 42
23 24 23 20 21 19 18 18 20 21 20 21 22 23 24 24 26 25 22 19 21 23 24 30 30 32 33 30 32 34 37 44 51 54 51 48 45 46 45 47 45 44 43 42
23 24 24 21 21 21 21 21 21 20 23 24 23 21 20 17 22 22 27 30 31 31 30 31 32 35 37 37 38 36 37 39 45 54 53 51 48 48 47 46 45 44 42 43
25 24 22 25 23 23 23 25 25 24 24 19 21 17 20 17 19 26 29 29 26 26 27 29 31 33 33 36 40 41 39 37 41 49 54 52 50 48 46 46 45 43 42 41
20 22 24 24 22 24 23 26 26 27 25 25 23 20 16 19 21 25 27 25 23 21 22 24 26 31 32 35 38 40 41 39 41 40 52 54 51 49 47 45 44 43 42 41
25 26 25 25 26 26 27 28 26 26 27 23 18 18 15 16 21 26 27 27 27 21 20 24 26 27 28 35 40 43 40 41 43 46 46 53 52 50 47 44 43 43 42 41
23 23 26 31 28 29 29 23 16 15 25 21 16 15 15 18 27 25 20 20 18 18 20 24 26 29 30 37 39 39 41 44 40 41 45 46 52 50 48 46 43 43 41 40
27 21 25 25 26 28 28 24 18 13 10 11 18 16 11 20 23 19 13 9 10 19 25 27 28 32 31 34 36 37 38 40 41 39 41 43 47 50 48 47 44 42 41 40
23 21 24 18 28 25 21 19 25 25 21 16 14 12 12 12 15 10 6 7 10 18 25 27 29 30 30 32 34 36 38 40 41 38 38 39 40 45 48 47 46 43 41 40
22 11 12 23 17 22 21 12 10 12 6 3 -3 3 6 13 10 8 8 9 12 21 24 27 28 29 30 32 33 35 37 39 41 40 36 37 39 39 43 46 46 44 42 42
18 12 12 20 10 9 9 8 12 15 16 12 10 9 9 11 10 12 10 9 13 23 25 26 26 26 30 31 33 32 33 38 40 42 39 36 37 37 38 41 44 43 43 41
16 13 4 7 10 9 9 11 17 16 15 15 17 16 11 11 12 11 9 13 20 25 25 25 25 26 27 31 30 27 29 36 39 41 41 37 36 36 37 38 40 41 41 41
19 13 12 9 19 19 18 19 14 17 25 21 15 14 15 13 10 9 10 15 21 23 24 24 25 26 28 26 26 27 28 34 38 39 41 39 36 35 35 36 38 38 38 38
27 18 14 14 15 17 17 17 16 15 21 15 14 12 12 10 9 10 15 19 22 24 24 25 28 26 27 26 25 27 29 33 38 40 41 42 36 36 36 36 37 37 36 36
23 19 18 16 17 17 16 16 15 14 14 14 14 11 11 7 10 15 18 22 23 24 22 23 24 26 26 27 28 30 33 34 37 41 41 42 40 36 35 36 37 36 36 34
23 22 22 20 18 17 16 15 15 14 13 11 8 8 8 12 14 20 22 23 22 22 24 22 24 26 27 27 30 33 33 33 37 40 42 42 41 37 37 36 35 36 37 34
24 24 23 19 16 15 15 13 11 9 9 10 10 14 14 18 22 23 24 24 24 25 25 25 26 28 29 30 31 31 30 32 38 40 41 42 38 39 36 36 36 38 38 35
23 22 23 23 20 15 12 13 12 11 11 14 14 17 21 24 25 25 24 25 26 26 27 28 28 30 31 31 32 31 29 30 37 37 39 40 37 37 38 35 36 36 36 36
22 23 23 21 17 16 13 12 14 15 16 19 20 26 26 25 26 25 25 25 26 27 27 27 27 29 30 30 30 31 31 32 36 38 38 37 35 34 37 38 36 36 36 36
18 19 24 21 21 17 14 16 18 21 19 24 28 28 26 28 29 29 26 26 26 25 26 28 29 28 28 29 30 32 32 34 36 38 39 38 35 33 32 38 38 37 36 35
15 19 23 23 24 20 16 16 22 20 21 27 27 29 30 31 33 32 29 26 25 27 28 29 30 29 30 29 30 31 32 35 38 38 37 35 32 30 31 38 39 38 36 35
20 20 18 17 20 15 16 18 18 23 27 30 30 31 32 35 35 33 30 29 28 28 29 29 30 30 30 30 29 30 32 38 38 38 37 34 30 29 29 41 43 36 36 35
18 17 21 21 21 20 22 22 26 30 29 32 33 34 35 34 31 27 29 28 28 28 29 30 30 31 31 31 30 30 34 38 37 37 36 30 29 31 33 39 43 35 35 34
16 18 22 23 21 19 20 21 26 33 33 34 32 31 32 31 31 31 30 28 28 29 29 30 30 30 31 32 31 30 32 39 38 37 33 28 33 37 35 38 40 37 34 33
21 22 20 20 20 21 23 27 31 32 32 31 31 31 31 31 31 31 30 29 28 29 31 32 32 32 32 32 32 31 32 40 38 36 32 29 36 34 34 36 40 35 32 33
24 21 21 23 20 27 29 31 33 31 31 32 32 32 32 30 31 29 28 29 29 30 31 32 33 33 33 33 32 32 33 41 38 37 32 34 38 38 34 37 38 43 40 42

GFSCGP_sfc_dewp_024.txt.gz
Dewpoint
36 29 25 24 25 20 16 14 15 19 23 24 27 25 24 25 26 29 30 28 30 30 31 31 33 34 35 37 39 40 40 39 53 56 55 50 47 46 46 45 42 40 43 43
28 29 27 24 24 24 23 22 22 24 26 23 24 24 25 26 30 31 30 28 27 26 26 28 31 32 33 34 37 37 40 41 41 55 55 52 47 46 46 47 44 43 42 43
27 27 26 21 25 23 23 23 24 25 26 25 25 25 28 29 31 27 24 23 21 20 21 24 25 28 30 33 36 36 38 40 41 41 54 53 49 48 48 46 45 44 42 43
26 26 22 27 23 23 24 26 26 26 25 22 24 21 24 27 28 25 23 23 22 20 21 24 26 27 27 30 36 37 37 39 40 42 42 52 51 47 47 46 46 45 43 42
25 25 26 26 23 26 24 29 28 29 27 26 26 25 22 27 27 26 27 24 17 19 24 26 27 28 29 31 38 37 36 38 42 43 42 43 50 51 49 47 46 44 43 41
26 27 27 27 29 29 28 29 26 24 24 25 23 24 21 24 25 18 13 11 9 15 24 26 28 29 30 31 38 38 37 39 42 44 42 40 42 50 51 48 46 45 43 42
27 25 28 29 25 32 31 26 22 21 26 26 20 19 20 24 16 10 9 9 11 11 22 25 25 28 30 33 34 37 37 39 39 41 42 40 39 43 51 49 46 44 43 42
25 23 26 24 25 25 24 25 22 17 16 21 21 18 22 17 11 11 12 13 13 14 22 25 27 28 28 30 31 34 35 37 37 39 42 40 38 41 46 50 49 44 44 42
21 22 23 19 26 25 23 21 20 22 21 18 18 17 20 13 11 13 13 13 14 15 23 25 26 27 28 27 29 31 34 33 33 36 40 41 39 37 42 48 49 47 44 43
19 12 10 21 22 20 22 20 15 15 9 8 6 7 9 11 12 14 12 11 10 14 21 22 23 24 25 26 28 32 30 28 29 32 39 41 41 38 37 40 47 47 46 42
18 15 14 13 15 10 15 11 12 13 11 9 13 13 13 12 14 14 13 10 12 20 23 23 23 25 25 26 28 28 26 28 28 33 39 40 41 40 36 37 43 45 45 43
17 17 8 7 12 16 14 9 10 20 17 18 18 15 15 14 15 14 12 10 16 23 25 25 25 23 23 26 26 26 27 27 29 36 38 39 41 42 39 36 37 39 43 43
21 14 13 13 20 20 19 19 20 17 24 20 17 16 17 16 14 13 12 14 19 22 24 24 24 23 24 24 26 27 27 30 33 34 37 40 41 43 40 36 36 36 39 41
26 19 13 15 17 18 17 17 16 16 18 16 15 14 14 14 14 13 14 17 22 23 23 23 25 25 24 25 26 27 28 32 33 34 36 41 43 43 42 40 36 36 37 39
26 20 18 18 18 18 17 17 16 15 15 14 15 14 14 12 10 12 14 21 23 24 24 24 27 27 26 26 28 29 30 32 31 31 35 42 44 43 41 42 39 36 36 37
25 22 23 22 20 18 16 17 16 15 15 14 11 10 11 13 12 14 22 23 24 24 28 27 27 27 27 27 28 29 29 31 31 29 30 38 44 43 42 43 44 39 36 36
23 25 24 20 17 18 17 16 14 13 13 13 12 15 18 22 26 25 25 25 23 27 27 25 26 26 26 26 27 28 28 29 30 29 30 34 41 42 40 43 45 45 41 36
23 23 24 22 21 15 17 17 16 16 16 18 18 23 30 30 29 28 27 25 25 27 26 25 25 26 27 28 29 28 29 29 30 30 30 33 39 39 38 39 44 45 45 36
22 23 24 21 19 18 17 17 18 16 17 21 25 27 27 27 28 27 27 30 31 30 28 26 25 26 27 27 28 29 29 30 30 30 31 38 38 36 37 38 43 44 45 42
21 23 23 20 17 15 17 20 20 24 18 23 24 25 27 29 28 28 30 33 33 33 29 27 27 26 27 28 29 30 30 30 30 30 38 38 37 37 36 35 37 44 46 45
17 21 21 22 20 21 21 20 22 15 17 23 22 26 30 31 32 32 33 34 34 31 28 28 27 26 27 29 30 30 30 30 30 32 37 37 37 37 37 34 32 44 46 46
22 22 21 21 18 15 22 20 17 20 23 24 30 33 33 33 33 32 33 33 32 32 31 30 28 27 27 29 29 30 30 31 31 32 36 37 37 36 36 30 34 42 45 45
20 18 24 22 22 21 21 21 23 24 29 31 32 32 32 32 31 32 32 31 31 32 32 30 29 27 28 29 30 30 31 32 31 30 33 37 37 36 33 28 35 39 44 44
18 20 22 22 21 20 21 22 24 27 31 32 32 32 33 33 32 31 31 31 30 30 31 29 27 27 28 30 30 31 31 32 31 31 34 38 38 36 32 35 35 42 43 43
21 22 20 20 21 23 23 24 31 32 32 32 32 32 30 30 30 28 27 27 26 26 27 28 28 28 29 30 31 32 32 32 32 31 37 38 36 33 36 36 40 42 44 44
25 22 22 22 20 23 27 30 31 30 31 30 29 28 27 26 25 26 26 26 26 26 27 28 28 28 28 28 30 29 31 32 33 34 38 38 36 35 38 39 40 45 46 46

GFSCGP_sfc_dewp_027.txt.gz
Dewpoint
32 25 20 22 23 22 20 19 19 22 25 25 24 25 23 29 29 24 21 20 21 23 25 27 27 27 29 33 34 34 37 39 41 41 42 51 50 47 45 43 42 41 42 43
25 24 25 29 27 25 23 22 22 25 29 25 25 24 28 23 23 21 20 20 20 23 24 26 27 28 29 32 34 33 33 37 41 42 43 45 50 48 47 45 43 43 41 43
24 28 28 26 26 24 24 23 24 25 28 27 25 23 29 25 23 22 21 20 22 24 25 26 27 28 29 29 35 34 33 34 39 41 43 42 42 47 47 46 45 43 41 43
25 27 27 28 26 25 22 29 28 28 27 20 25 22 25 24 24 24 18 17 22 25 26 26 27 29 29 30 33 36 34 36 37 40 41 41 42 41 45 48 46 45 42 41
23 26 27 27 29 29 25 30 29 29 28 29 26 24 25 26 17 10 9 10 14 24 25 26 27 29 30 32 33 35 36 38 39 39 40 42 41 42 43 47 47 45 44 42
27 28 27 28 29 28 30 29 23 24 25 21 22 25 24 22 12 10 11 12 12 14 24 25 27 28 30 32 32 35 36 37 39 39 39 40 41 40 40 40 47 47 46 44
27 27 30 24 25 30 25 22 20 16 22 21 21 17 19 10 11 12 12 12 13 14 24 25 27 27 28 29 28 31 32 36 37 35 36 38 41 40 40 39 41 48 46 44
20 20 28 18 26 24 24 22 22 17 18 22 20 15 19 11 14 14 13 13 13 14 23 25 26 26 27 27 26 29 29 34 33 33 33 35 42 43 42 41 39 40 47 45
23 23 18 26 25 23 22 17 18 17 21 18 21 17 14 14 15 15 14 13 13 13 22 23 24 24 26 25 26 28 32 29 28 29 31 34 41 41 41 42 41 40 42 46
18 11 14 24 23 21 19 20 15 14 7 7 9 9 17 12 15 15 14 13 13 17 23 24 24 25 25 24 24 29 28 27 28 29 29 36 40 40 41 42 42 39 38 46
16 14 10 9 13 12 12 11 12 12 11 8 9 13 14 15 16 15 14 14 15 21 24 25 25 25 25 25 26 27 27 28 28 29 31 38 38 40 41 42 43 40 38 42
19 16 10 6 14 18 14 10 10 13 13 17 16 15 17 17 17 16 15 15 16 24 25 25 24 23 24 25 26 26 27 28 29 32 34 35 36 39 42 43 42 41 40 37
22 12 10 6 19 19 17 17 18 18 22 16 13 13 18 17 16 16 15 15 20 23 25 25 25 24 25 25 26 26 28 29 31 33 34 34 34 39 43 43 42 41 41 39
25 19 11 9 13 19 18 19 19 17 14 15 15 15 15 16 16 16 14 16 22 24 25 26 28 28 27 27 27 27 29 30 30 30 32 32 34 43 43 42 42 42 42 42
25 21 20 20 21 21 20 20 19 18 17 15 15 15 15 15 15 21 24 25 26 25 24 27 28 28 26 26 26 28 28 28 28 30 30 32 34 38 45 44 43 43 42 43
22 19 22 21 22 21 20 19 19 19 18 17 16 15 16 20 29 28 27 27 26 25 25 28 29 26 25 25 26 25 26 28 28 28 29 31 32 34 35 44 45 43 43 43
22 23 21 16 21 20 17 19 18 17 16 17 13 16 27 28 27 26 26 27 26 26 30 32 30 27 26 26 25 26 27 28 28 28 28 31 30 32 40 45 43 42 44 45
22 22 22 17 19 9 15 20 19 19 19 20 20 23 29 28 25 25 27 27 27 30 32 31 32 31 27 27 27 27 27 29 29 29 30 29 30 35 39 38 38 40 44 44
23 22 19 14 15 18 19 20 20 20 18 22 23 24 21 21 23 27 28 28 31 31 32 33 34 33 28 27 27 27 27 30 30 29 29 30 34 36 37 37 38 39 41 43
23 23 21 19 7 8 17 22 22 22 14 23 23 21 24 31 28 28 30 32 32 32 33 33 33 31 30 28 28 27 28 28 30 29 31 31 31 35 36 37 37 39 40 41
17 18 20 20 14 19 22 23 24 12 13 22 23 31 31 30 31 30 32 32 32 32 33 33 32 30 30 30 29 28 27 28 29 31 31 31 31 34 34 36 36 38 39 38
18 16 17 19 14 14 23 21 17 20 23 24 30 31 31 31 31 31 32 33 32 31 31 31 30 30 30 31 30 27 27 29 31 32 31 31 31 32 34 37 37 37 37 37
19 20 20 20 18 22 22 21 24 26 30 31 32 31 31 31 31 31 30 29 28 27 26 26 26 26 26 28 27 28 31 31 32 32 32 31 31 32 34 38 37 36 35 39
20 21 21 19 20 20 21 22 27 33 32 31 31 30 30 29 28 25 24 24 25 25 25 26 26 25 26 27 27 28 28 31 31 30 30 30 31 33 37 38 34 37 39 40
21 21 20 21 21 23 24 27 31 32 31 29 28 27 26 26 25 26 27 27 28 28 28 28 29 31 30 29 29 29 29 30 29 28 30 32 34 35 38 36 35 38 41 42
25 23 21 20 23 24 26 31 32 29 28 25 25 27 28 28 28 28 28 28 29 30 32 31 32 33 34 33 32 31 32 31 28 28 31 33 34 39 38 36 37 41 46 46

GFSCGP_sfc_dewp_030.txt.gz
Dewpoint
33 25 20 21 21 21 20 19 20 22 26 26 25 26 23 21 20 21 21 22 24 25 27 28 29 29 30 32 34 32 35 38 40 41 41 42 43 50 49 46 43 41 41 43
24 22 26 25 27 27 26 23 22 25 29 25 24 24 23 21 22 21 21 23 24 25 26 27 28 29 30 30 33 34 34 38 39 43 43 42 42 47 48 49 45 44 42 42
23 26 28 27 27 24 24 22 24 24 28 26 25 26 23 23 18 15 19 23 25 25 25 26 28 29 30 31 32 32 35 37 38 40 42 41 42 43 45 45 47 46 43 42
24 27 27 28 26 26 22 29 29 28 27 20 26 19 25 23 13 11 10 14 23 25 25 27 27 28 29 31 30 33 34 35 37 38 40 41 41 41 41 43 47 47 46 42
22 25 26 27 28 30 25 31 29 29 27 27 26 24 27 17 11 11 11 12 13 24 25 26 26 27 28 30 29 31 33 33 37 36 37 38 38 42 42 41 41 43 47 46
29 29 28 28 28 30 27 24 22 28 26 20 21 25 24 13 10 12 12 13 12 14 24 26 27 27 28 29 28 29 31 33 36 35 34 33 33 38 41 41 41 42 43 48
25 28 28 24 23 27 23 22 16 13 19 16 22 17 17 10 12 13 12 13 13 13 23 25 24 25 27 27 27 27 30 31 33 31 31 32 33 38 42 42 42 40 41 41
21 16 20 21 25 21 23 22 16 5 13 18 22 12 10 13 14 14 14 14 14 13 20 24 24 24 25 26 25 27 29 29 29 29 30 31 32 40 42 42 41 42 42 41
16 16 17 24 23 20 18 17 22 16 18 16 18 11 11 14 15 16 15 15 17 15 20 23 24 24 24 25 25 26 28 28 28 28 29 29 31 40 40 40 40 43 43 42
17 6 13 17 22 17 16 20 17 15 5 5 9 11 14 12 15 17 14 15 16 16 21 24 25 25 25 25 25 27 27 27 28 29 29 30 33 37 38 39 41 43 43 40
16 13 6 10 12 11 12 10 13 13 12 6 7 9 14 15 17 15 15 16 17 18 24 24 24 25 25 25 25 26 27 27 28 29 30 32 34 34 36 37 38 44 42 42
20 16 11 6 9 16 12 10 11 12 7 16 14 14 17 17 16 16 16 17 17 23 25 26 26 26 25 26 26 27 27 28 29 30 32 34 32 33 34 34 38 43 42 42
16 9 5 0 18 18 16 18 18 19 21 15 13 12 16 16 16 17 16 18 21 24 26 26 26 27 27 27 27 27 28 29 30 31 31 30 31 33 32 32 41 41 42 42
23 15 3 7 9 19 18 19 20 18 14 14 15 13 14 16 17 17 23 24 25 26 26 27 26 28 29 28 27 27 28 29 30 29 28 30 30 31 32 35 38 42 41 42
23 19 20 20 21 22 21 21 20 19 19 16 15 16 17 18 16 23 27 27 27 26 26 26 27 29 29 27 26 26 28 27 27 27 29 29 31 32 35 38 39 38 42 43
23 17 22 20 21 21 21 22 22 21 20 18 18 18 19 17 27 28 27 26 23 23 25 27 29 31 29 30 29 27 25 27 27 27 28 30 30 32 35 33 35 43 44 42
21 22 20 16 20 20 15 19 20 18 18 18 14 16 19 25 26 23 20 21 21 26 27 27 30 29 30 31 32 27 26 27 26 27 28 29 30 31 32 34 42 42 41 41
22 22 22 16 18 4 9 20 20 19 19 21 21 23 26 25 21 22 25 25 26 29 29 29 31 31 33 34 34 31 28 28 27 27 28 29 30 30 35 34 36 39 39 39
23 22 18 12 14 16 16 19 19 17 17 21 22 24 21 22 30 27 26 28 29 29 31 33 33 34 33 32 32 32 30 29 28 28 28 29 29 31 31 32 36 38 39 38
23 22 18 19 7 7 12 21 22 21 15 23 23 22 26 30 26 25 27 29 30 30 31 32 32 31 31 31 31 31 30 30 29 29 27 28 31 31 31 31 36 37 37 38
20 21 19 19 12 18 21 21 23 12 15 21 25 30 30 28 28 28 30 29 29 28 27 26 26 26 26 26 27 28 29 29 29 32 29 30 32 32 32 33 32 33 35 37
19 17 17 19 14 14 24 21 16 18 24 28 30 31 29 28 29 29 28 26 25 25 26 27 26 26 26 26 26 25 26 28 28 28 33 31 32 32 31 30 30 32 36 39
19 17 18 20 19 21 22 21 23 29 31 31 31 29 30 29 25 26 26 26 27 28 28 28 28 28 28 28 28 27 30 30 29 29 28 31 31 30 29 29 30 34 38 37
22 23 22 19 20 20 21 23 27 32 31 31 31 29 26 26 27 27 28 28 27 26 26 28 29 31 34 35 35 35 36 35 32 28 29 29 29 30 30 33 34 36 37 36
23 21 19 20 19 21 23 24 30 32 32 29 26 27 28 28 28 27 26 26 26 27 28 31 31 34 35 36 37 38 38 36 35 32 30 30 28 28 33 33 34 37 38 38
25 22 21 18 21 22 23 27 32 31 26 26 28 28 28 28 27 27 27 27 28 30 32 34 35 36 36 37 37 38 37 34 34 36 31 28 29 32 33 34 37 39 40 41

GFSCGP_sfc_dewp_033.txt.gz
Dewpoint
31 26 19 20 23 22 19 19 19 22 26 25 23 21 21 21 22 22 23 24 24 25 26 28 29 30 30 31 32 33 35 37 39 39 41 42 42 45 45 48 45 42 42 44
24 22 24 26 27 26 25 22 21 25 29 26 22 21 22 22 22 23 23 24 24 25 25 26 28 29 29 29 30 32 33 36 38 41 41 41 41 44 47 46 46 46 44 42
23 26 28 26 27 24 23 21 23 23 28 26 23 23 20 18 14 15 19 25 25 25 25 25 26 28 28 27 28 30 32 33 38 38 41 40 39 41 43 43 44 45 46 46
25 26 27 27 25 26 21 27 28 27 26 19 26 19 21 15 12 12 11 12 23 24 25 26 26 26 28 27 26 28 31 32 36 35 36 37 37 38 41 42 43 42 44 46
21 24 25 26 27 29 25 30 29 29 26 26 25 24 25 12 11 12 11 12 13 19 24 25 25 26 27 27 26 28 30 30 33 32 33 33 33 38 42 42 41 41 42 43
29 31 28 28 28 28 25 23 23 28 26 19 19 23 22 18 10 12 13 13 14 13 18 25 25 25 27 27 26 28 29 30 31 32 30 30 30 31 36 41 41 41 42 42
22 27 26 24 22 24 23 17 8 7 17 14 22 20 17 10 11 12 13 13 15 15 13 24 24 24 25 27 27 27 30 29 28 28 29 29 30 31 34 41 41 40 41 42
18 12 20 25 23 19 22 20 11 1 6 13 22 13 11 12 13 14 15 15 15 16 15 22 24 25 24 25 26 26 28 27 28 28 29 30 30 33 39 41 41 40 41 42
10 9 14 20 19 19 17 16 21 15 16 13 16 16 12 14 14 16 17 16 17 18 17 22 24 25 25 25 25 26 27 28 28 28 29 29 29 31 37 37 38 39 41 43
16 -1 11 16 20 16 15 18 16 14 3 2 5 8 14 12 14 17 16 16 17 19 18 23 24 25 26 26 26 26 27 28 28 28 29 29 30 33 33 36 38 39 40 43
15 10 2 10 12 11 11 10 13 14 11 6 5 6 13 13 16 16 16 17 18 19 22 24 25 26 26 27 27 27 27 28 28 29 30 30 31 31 31 32 33 34 35 42
19 14 7 2 8 15 13 10 10 12 7 14 13 14 16 17 18 17 17 18 21 25 26 26 27 26 26 26 27 28 28 28 28 29 30 30 31 31 31 31 32 32 34 40
12 7 2 1 13 18 16 18 18 20 20 14 12 10 17 18 16 17 18 20 25 27 27 27 27 27 26 26 28 29 29 28 28 29 30 31 30 30 31 31 31 32 35 40
21 10 2 8 7 16 12 17 19 18 14 14 15 10 11 12 17 19 19 23 27 28 28 27 27 27 27 27 29 29 29 28 28 29 29 29 29 30 31 31 31 33 37 37
20 15 18 18 16 18 18 18 20 19 18 15 8 13 14 17 19 19 23 28 27 23 21 22 23 26 27 28 29 29 29 30 29 28 27 28 29 30 33 34 34 35 33 34
23 16 21 19 21 21 20 21 21 20 20 19 18 18 20 20 19 25 26 25 20 23 25 26 27 27 27 27 29 30 31 32 32 28 27 28 29 30 32 33 34 34 34 43
21 21 20 13 19 18 11 14 18 21 21 20 17 18 19 21 23 24 20 23 26 27 27 26 27 28 29 31 31 32 33 33 33 31 27 28 27 28 31 33 33 35 39 38
22 21 22 16 16 4 9 18 20 19 19 21 19 22 25 25 23 25 29 29 28 27 26 28 28 29 30 31 31 30 30 31 31 31 31 29 28 28 30 32 32 35 36 37
23 22 17 11 13 14 14 18 18 19 17 23 22 22 22 24 30 26 27 27 26 28 28 27 27 27 26 26 26 27 27 27 28 29 29 29 30 29 29 30 33 34 35 37
23 22 18 18 6 6 10 20 22 20 15 21 22 22 24 30 24 22 23 28 28 26 26 25 26 27 27 27 27 27 27 26 26 26 27 29 28 30 30 29 32 33 36 37
20 20 18 18 11 17 20 20 22 14 14 22 24 28 29 27 26 25 28 25 26 27 28 29 28 27 27 27 28 28 30 29 29 28 28 29 31 31 30 32 32 33 32 31
20 18 18 19 13 14 24 22 17 19 22 27 29 30 29 29 29 26 26 27 28 28 28 27 26 27 27 28 29 31 33 34 34 34 32 31 29 32 30 30 31 30 30 31
17 18 19 21 20 22 23 20 22 25 28 30 30 30 30 26 26 27 28 27 26 26 27 28 28 29 32 32 33 35 37 38 38 38 37 35 31 29 30 30 29 29 31 33
21 23 21 21 19 21 22 23 23 31 31 31 30 27 27 27 28 28 28 26 27 27 27 29 31 32 34 36 35 38 38 38 38 37 37 35 32 30 30 30 30 30 34 34
23 22 21 20 19 19 21 23 24 31 31 27 26 27 28 28 28 28 27 27 27 27 29 31 33 35 36 37 37 38 38 37 36 36 35 33 33 33 30 28 28 33 34 36
24 21 20 17 17 19 20 24 31 30 25 25 27 28 28 28 28 27 27 27 28 28 30 33 34 36 37 38 38 39 39 37 35 34 33 34 34 31 31 32 33 37 38 42

GFSCGP_sfc_dewp_036.txt.gz
Dewpoint
29 24 17 20 22 22 18 18 19 21 26 23 21 20 21 22 22 22 23 23 24 24 25 27 28 28 27 28 30 31 34 36 38 39 39 39 41 43 44 45 46 45 44 44
23 20 24 26 26 25 24 22 21 24 28 23 21 20 21 22 23 23 23 23 24 24 24 25 26 27 26 25 27 29 32 35 36 38 39 39 39 41 44 44 43 44 46 46
23 25 28 25 26 24 23 21 22 22 28 23 20 20 17 15 16 19 21 23 24 24 24 24 25 26 27 25 25 28 31 33 35 35 37 37 37 37 39 41 42 43 43 44
25 26 27 25 24 25 22 26 28 27 26 17 24 16 19 14 10 11 10 11 16 23 24 25 25 25 26 26 26 27 29 30 33 32 32 31 33 33 37 40 42 42 42 42
20 24 25 26 26 29 25 28 27 28 25 24 24 24 24 12 10 10 11 13 14 13 17 24 25 25 26 27 27 26 28 29 30 30 30 31 30 32 36 38 40 41 41 41
28 30 26 27 28 27 25 23 22 27 25 16 18 22 19 12 10 11 13 14 15 15 15 15 25 25 25 26 27 28 28 30 29 29 29 29 29 29 32 35 40 41 41 41
19 26 22 25 21 22 23 11 5 2 13 13 22 21 19 16 12 13 13 14 15 16 16 16 22 24 25 26 26 27 28 29 29 28 28 28 29 29 30 35 40 40 39 39
14 14 20 22 22 19 22 18 9 -4 -0 7 20 15 14 12 13 14 15 17 16 17 18 18 21 25 25 25 26 27 27 27 29 28 29 29 29 32 33 36 38 38 39 39
8 3 13 17 17 17 17 14 20 13 15 10 12 15 13 13 13 15 17 17 18 19 19 18 23 25 25 26 26 26 27 27 28 28 28 28 29 30 32 33 36 37 37 39
14 -6 11 15 19 15 15 17 12 13 2 1 4 6 10 12 13 15 16 17 18 19 21 22 24 25 26 26 27 27 27 27 27 28 29 28 29 30 32 33 33 35 37 38
14 4 -1 9 11 11 8 12 15 14 11 6 5 5 10 12 14 16 16 17 18 20 23 25 26 26 27 27 27 27 27 28 28 29 29 29 29 30 31 31 31 33 35 36
18 10 2 -1 7 14 13 10 10 13 6 12 12 13 17 15 17 17 17 19 19 23 27 27 27 26 27 27 27 27 27 28 29 30 29 29 29 30 30 30 30 32 32 34
14 4 2 -4 10 18 15 17 18 19 19 14 11 7 16 17 17 17 19 20 20 26 28 28 28 27 27 26 26 27 27 29 29 30 29 29 30 30 29 29 29 31 31 31
20 9 4 11 8 15 15 16 18 16 14 13 13 8 11 15 15 17 20 20 24 27 27 27 25 25 25 26 25 26 28 28 30 30 30 30 30 30 28 29 30 31 31 32
18 14 14 16 15 13 12 11 18 18 16 12 4 10 10 12 16 20 20 25 25 22 23 25 26 26 24 25 27 28 29 30 30 31 32 33 32 30 30 30 31 31 32 33
22 15 21 16 20 21 20 20 20 18 17 18 17 17 18 19 20 21 23 24 22 26 26 26 24 24 26 26 26 27 28 29 30 30 30 31 33 32 30 30 31 32 32 33
21 21 18 9 18 16 9 10 18 20 21 19 15 16 19 20 22 22 22 25 27 27 26 23 25 26 26 26 26 26 26 26 26 27 27 28 29 31 31 31 30 31 33 34
22 20 21 15 14 3 10 18 19 19 21 23 22 23 23 23 23 24 29 28 28 25 24 26 26 25 26 27 28 28 28 28 28 27 27 26 27 28 30 30 30 32 34 35
23 21 17 10 12 13 10 17 18 18 17 22 22 22 21 24 29 26 26 25 25 27 26 25 26 28 28 28 27 27 27 28 28 28 29 29 28 28 28 29 32 32 33 34
23 21 16 18 4 6 11 20 21 19 13 20 22 21 22 28 23 21 24 27 26 26 27 27 28 27 27 27 28 29 30 30 30 31 32 33 33 32 30 30 31 34 33 33
19 20 18 17 11 16 19 21 22 11 15 23 21 22 27 27 27 26 28 26 27 28 28 27 27 27 28 29 31 33 35 35 35 36 38 37 38 36 35 33 31 32 35 32
20 18 18 18 14 13 24 22 16 19 20 22 25 28 29 29 29 28 27 27 28 27 27 27 28 29 30 32 34 36 36 38 38 38 38 37 38 37 35 34 31 30 31 30
16 19 20 20 19 22 24 21 23 23 23 28 29 29 29 28 26 27 27 27 27 27 27 28 29 30 30 33 35 35 36 39 39 39 38 36 36 37 34 34 31 30 30 31
19 21 20 19 19 20 22 22 22 27 29 30 30 29 26 26 27 27 27 27 27 27 27 29 29 31 31 33 34 35 37 40 39 38 36 34 33 34 33 31 31 30 31 30
21 22 20 21 20 20 20 22 23 27 31 30 26 26 28 28 28 28 27 27 26 27 28 30 31 33 33 34 35 34 38 39 38 37 37 36 32 33 34 35 33 30 29 32
24 21 20 21 21 19 19 24 27 29 30 25 26 27 28 28 28 28 27 26 27 27 28 31 32 34 35 35 35 36 38 39 38 36 36 36 36 34 36 33 33 36 37 38

GFSCGP_sfc_dewp_039.txt.gz
Dewpoint
30 26 21 22 25 22 20 19 20 22 27 23 22 22 22 22 22 23 23 22 22 22 25 27 28 27 25 24 26 31 35 34 35 37 37 35 36 36 40 42 43 44 43 44
26 25 27 26 26 26 23 22 22 24 28 24 21 20 21 21 21 23 22 22 23 23 23 24 26 28 27 25 26 27 32 34 34 37 38 38 36 39 40 43 41 44 44 43
26 26 28 27 27 24 24 22 21 22 27 22 20 20 20 19 21 23 23 24 24 25 24 24 25 27 30 28 28 27 29 32 34 35 36 36 36 36 37 37 39 42 43 43
26 27 27 28 26 26 24 25 26 26 26 22 23 10 21 14 15 14 15 14 14 17 21 26 27 28 27 30 31 29 29 29 31 34 34 34 33 33 35 37 40 41 43 41
26 27 28 29 28 30 26 25 24 27 26 24 24 22 23 15 12 11 12 15 17 18 17 16 19 27 27 29 30 30 29 29 32 31 34 35 34 34 35 35 38 40 43 42
28 29 27 27 29 27 25 22 24 27 25 17 18 24 20 12 11 11 13 15 17 17 19 20 21 23 28 30 32 33 31 31 33 34 33 34 34 32 32 33 34 38 39 38
21 25 23 27 23 22 23 12 9 8 10 12 23 23 22 17 13 13 14 15 17 19 19 21 21 23 29 31 33 32 32 32 31 30 32 32 35 34 33 32 33 35 36 35
15 18 22 20 22 18 22 16 9 1 -2 5 18 15 14 17 14 15 17 18 19 19 20 22 23 26 28 30 31 31 30 30 30 30 30 31 32 34 34 34 34 34 36 35
11 8 13 16 17 18 17 15 21 13 13 8 10 12 15 12 14 15 17 19 21 21 22 23 23 26 27 28 28 29 29 29 29 28 29 28 29 31 34 33 33 35 35 35
15 3 12 15 19 16 16 19 10 13 0 -1 3 5 8 12 13 15 17 18 20 22 21 25 27 28 27 27 27 28 28 28 28 28 29 30 30 30 31 32 31 33 34 35
16 7 7 13 12 13 14 15 15 14 11 5 4 5 9 14 14 15 17 18 20 21 22 24 27 27 28 28 28 27 27 27 28 29 30 30 31 30 30 30 31 33 34 33
18 7 1 1 9 13 13 10 15 14 9 12 13 15 15 17 15 17 18 20 22 23 25 27 28 27 27 27 27 27 26 26 28 30 30 30 31 31 31 29 31 31 31 32
17 7 6 5 11 18 15 16 16 18 21 18 12 8 16 17 17 18 18 20 22 23 25 27 26 26 26 26 25 24 25 27 29 29 30 31 31 32 32 31 32 31 30 30
20 9 8 16 14 15 16 17 18 16 19 14 12 8 10 16 19 19 20 21 22 25 26 25 27 25 24 23 23 26 26 27 29 29 30 31 31 32 33 33 33 32 31 30
20 13 13 14 12 11 11 10 18 16 16 13 8 10 11 11 14 16 20 22 23 23 25 27 26 23 22 24 25 25 26 27 27 27 28 29 29 30 31 32 33 32 31 31
23 17 21 15 19 20 19 19 19 16 17 17 16 15 16 18 20 19 21 22 23 25 26 26 22 23 25 24 25 27 28 28 28 28 28 30 30 30 30 30 30 31 32 31
22 22 18 14 16 15 11 13 14 19 19 17 14 17 19 20 21 22 22 24 26 27 25 23 24 24 25 26 27 28 28 28 27 28 28 28 29 30 30 30 30 31 32 33
21 20 21 18 14 11 15 18 17 18 21 23 22 23 25 24 23 24 26 27 26 24 24 24 24 26 27 28 28 28 29 30 30 31 31 31 30 30 30 31 31 31 32 34
23 22 19 16 13 14 12 15 19 17 17 22 22 23 23 23 28 24 26 24 26 26 25 25 27 28 28 28 29 30 31 32 34 34 34 35 35 34 36 36 33 34 33 32
23 21 16 17 14 13 14 20 21 21 15 20 24 24 21 27 20 20 24 28 27 26 27 27 28 28 28 29 30 31 32 33 35 34 36 37 38 39 37 34 37 36 37 37
19 20 20 19 17 18 19 22 23 15 21 22 24 23 26 27 27 27 29 27 26 27 28 28 28 28 28 29 31 31 33 34 35 35 37 38 40 39 37 36 35 37 38 35
21 20 19 19 18 16 24 23 19 23 22 25 23 25 29 31 31 30 28 27 27 28 27 28 28 28 30 31 32 32 33 34 35 38 38 38 39 39 37 36 37 35 35 32
18 20 22 21 20 24 25 25 26 25 24 26 28 30 31 30 27 27 27 27 27 27 28 28 28 28 30 32 33 33 33 35 37 38 36 38 39 38 36 33 33 35 34 32
19 22 22 20 21 21 22 24 25 26 27 29 31 30 28 26 27 27 27 27 27 27 27 27 28 29 31 32 33 33 34 36 38 37 37 38 38 37 37 31 32 33 33 32
20 21 20 20 20 22 23 23 23 25 29 31 30 27 27 28 27 27 27 27 27 27 27 27 29 31 31 33 33 34 35 38 37 37 37 37 37 37 37 35 34 35 34 33
24 20 21 21 23 23 24 23 24 25 29 31 27 26 28 28 28 28 27 27 27 27 27 28 30 32 32 33 33 34 35 38 37 36 37 37 37 37 38 37 36 39 39 39

GFSCGP_sfc_dewp_042.txt.gz
Dewpoint
30 22 16 21 23 20 21 21 21 23 27 26 25 25 26 24 23 24 22 18 17 16 21 23 24 22 21 21 21 23 26 27 27 28 28 28 28 27 28 30 32 33 37 39
24 19 25 24 24 24 23 22 20 24 27 26 25 25 25 24 23 23 21 18 18 19 17 20 22 25 23 23 23 22 24 27 28 31 31 29 26 28 31 34 33 33 35 38
21 26 26 25 25 24 24 21 19 21 27 25 25 24 24 23 22 21 20 20 20 21 19 19 21 23 26 25 27 26 26 26 28 31 32 31 30 30 29 30 31 33 34 35
25 26 25 25 23 24 21 24 25 25 24 19 22 6 24 22 21 20 19 19 18 19 18 19 21 24 25 27 30 28 27 26 27 30 31 31 31 30 30 31 32 33 32 33
24 25 26 25 24 27 26 26 25 25 22 21 22 18 19 22 19 18 17 16 17 17 17 18 19 23 21 29 30 31 30 26 28 27 31 32 33 32 31 31 32 32 33 33
26 29 25 26 28 26 24 22 24 26 23 18 16 19 13 18 17 17 15 15 17 17 18 19 20 23 24 30 34 34 30 27 28 29 27 30 30 29 30 32 32 31 31 32
25 25 22 25 23 24 21 18 12 14 19 13 21 21 16 23 17 16 14 15 17 18 18 19 20 23 25 30 30 28 27 26 23 24 26 27 30 29 30 30 30 31 31 32
16 19 22 19 22 18 20 18 9 6 4 6 22 16 15 16 18 15 16 17 20 20 20 21 22 25 26 26 26 26 24 24 24 25 25 25 26 28 29 30 31 31 31 32
10 10 15 15 18 19 18 15 23 10 12 7 8 10 14 15 15 15 16 19 21 21 21 22 23 25 25 25 24 24 24 23 24 23 23 22 23 26 29 30 30 32 31 31
11 1 10 14 16 19 18 19 14 14 5 4 3 7 6 15 15 16 17 19 21 22 21 22 23 25 24 23 24 24 21 21 23 23 23 24 25 26 28 28 29 31 31 32
13 6 6 12 15 13 17 15 15 15 12 6 5 6 9 10 13 15 16 18 20 21 22 22 23 23 24 24 23 22 22 22 22 23 26 26 27 27 28 28 29 31 31 29
15 8 2 0 10 15 13 9 12 11 11 12 16 14 12 13 14 16 16 18 20 23 25 24 24 23 22 23 21 20 20 22 25 27 27 27 28 28 28 29 29 29 30 30
17 10 9 9 17 17 13 14 11 16 20 20 13 11 12 16 16 17 17 17 20 22 23 23 22 23 22 19 17 19 23 25 26 27 27 28 28 28 28 28 29 29 29 30
21 13 11 13 15 16 15 17 15 12 21 12 13 10 11 14 15 15 16 19 19 20 23 24 25 24 20 18 19 21 23 26 28 28 28 29 28 29 29 30 29 29 28 28
21 14 12 11 12 10 8 9 14 14 11 11 12 10 10 11 14 16 16 19 21 21 22 24 25 21 18 19 20 24 27 28 28 28 28 29 29 29 30 30 30 30 29 28
24 18 20 14 17 18 16 16 16 14 13 13 12 14 16 16 17 16 17 20 21 21 23 24 23 20 20 21 24 27 28 28 29 29 30 32 34 34 33 32 31 31 31 30
21 21 19 17 12 12 12 13 13 14 16 14 13 16 19 18 19 19 21 22 22 23 24 24 20 21 22 25 27 27 28 30 30 30 30 31 33 33 35 35 34 32 33 32
21 18 19 21 15 19 16 15 15 14 16 20 19 21 22 22 24 23 23 23 23 25 25 22 21 23 26 27 28 29 30 30 30 30 31 33 32 34 36 38 37 36 36 35
24 20 19 21 17 16 17 17 17 16 14 19 21 21 21 23 25 21 24 24 26 26 23 23 24 26 27 28 28 30 30 30 30 30 32 32 33 35 37 39 39 39 39 35
23 22 18 17 22 23 18 19 20 21 17 20 21 20 20 23 19 19 24 26 26 24 24 25 26 27 27 28 29 29 30 31 30 30 32 33 35 38 37 39 39 39 37 36
20 22 24 23 24 21 20 20 22 17 24 21 21 20 22 24 22 26 28 27 26 25 26 27 27 27 28 29 29 30 29 31 32 33 34 35 38 38 39 39 39 39 37 38
25 27 23 21 24 21 23 22 20 23 25 24 23 23 26 26 28 30 28 27 26 26 26 26 27 27 28 28 28 30 31 33 34 35 36 36 38 38 40 39 38 36 33 33
21 21 26 25 26 25 24 23 25 28 25 25 26 26 28 29 29 28 28 26 25 25 26 26 27 27 27 28 28 31 33 34 35 35 35 37 39 39 39 39 38 36 32 33
21 22 23 24 23 22 23 24 25 26 27 27 27 28 30 29 27 27 26 25 25 25 26 26 26 26 27 29 29 31 33 35 34 35 35 37 38 39 39 39 39 38 35 36
22 21 21 21 22 24 25 26 27 27 27 27 27 29 31 29 28 27 25 25 25 25 27 25 26 28 28 30 31 32 34 36 34 35 35 36 38 38 38 38 39 38 37 37
23 22 22 23 21 24 24 25 25 25 25 25 28 29 29 29 28 27 25 25 25 26 26 25 27 29 30 31 31 31 35 34 33 34 35 37 37 37 38 38 39 41 41 41

GFSCGP_sfc_dewp_045.txt.gz
Dewpoint
26 23 17 14 20 20 16 16 16 19 25 26 23 23 27 27 27 27 24 21 20 18 21 21 22 22 21 20 21 22 23 24 25 29 29 28 29 27 29 31 31 31 33 33
22 18 25 23 23 23 21 20 20 21 24 25 23 26 26 27 26 26 25 22 20 19 17 20 21 23 22 23 23 23 23 25 26 29 29 29 27 28 31 36 32 32 31 32
20 27 26 24 25 24 24 22 19 18 26 27 27 23 24 27 26 25 24 24 20 21 18 19 20 23 26 25 26 26 26 26 27 28 29 29 30 33 34 34 34 35 31 33
23 27 24 25 24 23 22 24 23 24 25 17 23 8 26 24 24 23 23 22 21 22 22 22 21 22 22 25 28 27 27 26 26 27 29 29 31 31 32 33 35 33 31 31
25 25 26 26 24 25 25 27 26 27 24 19 18 19 21 24 22 22 21 22 22 21 20 17 19 21 21 24 27 30 29 28 26 25 29 32 29 31 32 31 31 31 33 33
26 28 25 26 27 26 27 25 25 24 21 17 15 18 15 20 19 20 20 20 20 18 18 20 21 22 24 27 31 32 28 26 27 28 25 31 33 28 29 30 30 32 34 35
23 24 23 25 25 27 25 23 16 20 22 18 18 17 12 21 18 18 19 18 17 18 19 21 22 23 25 28 29 28 27 27 24 24 24 25 33 30 28 28 30 30 32 34
15 20 23 22 23 21 20 19 12 11 8 9 20 15 15 17 18 18 18 17 19 20 21 22 23 25 26 27 27 27 25 24 24 22 22 23 26 29 28 29 28 29 31 33
10 13 19 18 19 19 20 15 22 11 9 9 8 13 17 15 16 16 16 18 21 22 22 23 24 24 26 26 25 24 24 24 22 20 21 20 22 26 29 29 30 31 31 31
12 5 13 17 17 20 18 19 16 16 9 9 5 9 9 15 15 15 16 18 21 24 23 23 22 23 24 23 23 24 22 20 19 19 20 23 25 26 29 30 30 32 32 34
13 8 10 11 14 13 17 13 13 15 12 8 8 9 8 11 12 15 15 17 20 21 22 22 22 23 24 23 22 22 19 17 18 21 24 26 27 27 27 28 30 31 32 32
14 14 6 4 12 15 15 12 12 13 13 14 16 15 11 12 12 14 12 15 17 20 22 24 24 23 21 22 22 19 17 18 22 24 25 27 28 28 28 28 28 28 30 31
18 12 11 11 16 15 9 10 11 11 20 19 15 12 11 13 14 15 18 18 18 18 21 22 22 22 22 22 18 16 18 20 22 25 27 28 28 29 28 28 28 28 29 30
22 16 12 13 14 16 14 15 15 12 17 14 14 13 14 15 17 15 16 16 16 19 20 22 24 24 23 20 16 16 18 21 26 27 28 29 29 30 31 32 32 32 30 30
21 16 13 13 11 11 10 10 9 13 13 11 12 12 12 14 16 15 15 17 19 20 21 22 24 24 22 17 17 19 22 25 26 27 29 30 30 32 32 33 33 33 33 33
23 18 19 14 13 15 13 14 13 13 12 11 12 14 17 18 17 17 17 19 20 20 22 23 24 23 19 17 20 23 25 26 27 29 29 31 31 32 32 33 33 33 35 36
20 21 20 19 14 14 14 17 15 15 14 16 16 18 18 19 19 20 21 21 21 22 23 24 24 20 19 21 23 24 25 27 27 28 29 31 31 31 33 33 33 35 37 37
20 19 20 23 20 20 20 20 18 17 18 18 17 20 21 21 22 22 22 22 22 23 25 25 21 21 23 24 25 25 27 27 28 29 30 31 31 31 32 33 35 37 38 39
22 20 22 25 22 20 18 19 17 15 16 19 19 20 20 21 24 23 23 23 24 26 25 23 22 23 24 25 26 28 27 28 30 29 30 31 32 33 35 35 37 39 39 40
23 22 22 22 26 24 21 19 19 20 20 19 20 22 21 23 23 24 25 25 26 26 25 24 24 24 24 25 27 27 27 29 29 30 31 33 34 34 35 37 39 40 40 39
22 24 25 25 28 25 23 22 22 19 25 26 24 24 24 24 24 25 25 27 27 26 25 25 25 24 25 26 26 26 27 28 30 32 33 33 34 36 36 38 39 40 39 39
26 28 26 24 27 25 25 22 20 24 28 27 27 26 27 27 27 26 28 28 28 26 25 24 24 25 25 25 26 27 28 30 31 32 35 34 34 35 36 37 39 40 39 38
23 21 25 26 29 27 27 25 27 28 27 28 28 29 28 28 27 28 28 28 26 24 24 24 25 24 24 26 27 27 30 31 32 34 35 34 34 35 35 38 39 38 39 38
23 24 26 26 22 22 22 23 26 28 28 28 28 27 27 27 29 28 27 27 25 24 24 25 25 23 24 27 28 28 30 32 33 35 33 34 35 36 38 38 39 38 38 38
21 23 21 20 21 22 22 24 26 27 28 28 28 27 28 29 29 28 28 27 24 24 25 25 24 24 26 28 29 29 30 34 34 34 34 35 36 37 37 38 38 39 39 40
24 23 23 23 22 22 22 24 26 28 27 27 27 27 28 30 29 29 28 26 25 24 25 24 24 25 27 28 29 30 33 35 35 34 35 36 38 37 37 37 37 41 41 42

GFSCGP_sfc_dewp_048.txt.gz
Dewpoint
36 30 26 25 28 25 21 18 18 21 29 32 29 27 27 30 29 29 28 23 22 20 22 23 22 22 21 21 22 22 25 25 27 32 31 32 33 32 34 34 34 34 35 35
30 25 29 28 28 27 23 21 21 28 27 28 26 25 28 29 29 30 28 24 22 21 20 21 23 22 23 24 24 25 25 27 28 32 32 31 30 33 34 38 36 36 35 35
24 28 26 24 29 24 25 25 24 22 28 28 28 28 29 29 29 28 27 27 23 21 19 19 20 23 27 26 26 27 27 27 28 30 32 33 32 35 35 36 37 36 35 35
27 28 25 30 24 24 26 28 26 25 27 24 28 20 24 27 27 26 26 26 24 22 23 23 22 23 32 25 28 27 28 27 29 28 31 30 31 31 32 33 34 33 32 32
30 30 31 27 26 27 28 32 29 30 27 24 21 21 23 27 26 24 24 24 25 24 23 23 22 21 22 25 28 32 31 31 28 28 30 33 31 32 32 31 30 29 31 32
28 31 29 27 28 28 29 27 29 29 26 21 17 21 23 24 23 24 23 23 24 23 21 20 20 24 24 28 31 33 31 29 29 30 28 28 29 29 29 29 29 30 32 34
25 25 25 26 27 31 30 28 23 24 25 22 20 21 18 20 18 20 22 22 22 22 20 21 21 24 26 29 30 32 30 30 28 26 26 25 27 29 27 27 28 28 29 31
20 23 25 25 27 25 28 26 21 15 15 14 22 19 17 19 20 19 21 22 21 21 21 23 24 26 27 29 29 30 28 27 27 25 24 23 23 28 28 28 29 28 29 30
16 20 21 20 21 24 25 21 26 15 10 11 14 19 18 17 17 17 17 19 22 21 23 24 25 26 26 27 27 26 25 26 25 21 20 20 23 25 28 28 28 31 30 31
19 13 18 18 22 23 24 23 20 19 13 12 11 14 18 17 16 17 16 19 23 24 23 24 24 24 25 25 25 24 24 23 19 19 21 23 25 26 27 28 28 29 29 30
18 15 16 19 18 21 21 16 17 18 16 11 12 14 11 15 16 17 16 18 21 24 25 24 23 23 25 25 24 24 22 18 19 22 24 25 26 27 28 28 29 29 30 29
19 20 13 16 15 17 20 17 16 18 18 22 21 20 12 13 15 15 15 18 20 23 24 25 24 24 24 23 24 23 20 18 20 23 24 26 28 28 28 29 29 29 30 31
24 18 16 17 21 20 14 14 15 14 22 23 18 15 13 13 15 16 18 19 20 21 21 24 24 22 23 24 23 20 17 19 22 25 26 27 28 29 29 30 31 31 32 31
28 22 18 19 18 22 17 18 16 15 22 16 17 15 16 17 20 18 18 18 19 21 21 23 25 24 24 24 21 17 19 21 24 26 27 29 30 30 30 31 31 31 31 31
26 20 19 18 18 16 14 14 14 11 14 14 14 14 14 17 16 16 17 19 20 20 22 23 25 25 24 21 18 19 22 24 25 26 28 29 30 30 30 31 31 31 33 32
26 22 22 19 17 17 15 16 16 16 15 14 14 16 20 20 19 18 18 22 22 22 22 24 25 25 22 19 20 22 23 24 26 26 27 29 30 30 30 31 31 31 31 32
25 25 24 23 20 20 19 20 20 20 19 18 16 21 23 22 22 22 24 24 22 22 24 25 25 23 21 22 23 23 24 26 27 27 28 29 29 29 30 31 32 33 33 34
25 23 24 27 23 21 23 22 21 22 21 22 22 23 25 24 25 23 24 24 23 25 25 26 24 23 24 24 25 25 27 27 27 27 28 29 30 30 31 33 32 33 35 37
24 24 27 26 26 24 20 21 20 19 19 25 25 25 24 25 26 25 25 25 25 26 26 25 24 24 24 24 25 26 27 27 27 27 27 29 31 31 32 32 34 36 37 38
25 25 24 25 22 21 25 22 24 25 22 28 27 27 26 27 25 27 27 26 27 27 27 26 25 24 24 24 26 26 26 27 27 28 29 31 31 32 34 34 35 36 37 38
23 25 24 25 27 27 27 24 27 20 26 29 28 29 29 27 28 28 29 27 29 29 28 26 25 24 24 25 25 26 26 27 28 29 31 31 33 34 34 35 36 36 37 38
27 29 28 26 26 23 27 25 22 27 30 29 30 30 30 30 30 30 30 30 30 29 27 25 25 25 25 24 24 26 27 28 30 31 32 32 33 34 34 35 36 38 39 38
25 24 28 29 31 31 28 27 31 32 30 30 29 30 31 30 29 30 30 29 29 27 25 25 25 25 24 24 26 27 28 29 30 31 32 33 33 35 35 36 38 38 38 38
25 26 29 27 27 25 25 26 26 28 28 29 30 30 30 29 30 29 30 29 28 26 25 25 25 24 23 25 27 28 29 30 32 32 33 33 34 35 37 38 38 38 37 37
26 26 23 22 24 26 26 26 27 28 29 30 30 30 30 30 30 30 29 29 28 26 26 26 25 24 25 26 27 28 29 31 32 33 33 33 35 37 37 38 38 38 40 42
28 25 24 24 24 24 25 27 28 28 29 29 29 29 30 30 31 30 30 29 27 26 27 26 26 27 27 26 26 28 30 33 34 33 32 36 37 37 37 37 37 41 43 44

GFSCGP_sfc_dewp_051.txt.gz
Dewpoint
33 26 22 21 24 22 21 19 18 21 29 25 25 26 28 29 27 27 26 24 22 20 21 21 20 21 21 21 22 24 26 25 29 30 29 29 30 31 32 33 34 35 36 35
24 20 25 28 28 27 25 23 21 27 30 25 25 25 26 29 27 27 28 24 22 21 21 21 22 21 22 24 24 25 26 26 27 30 30 31 30 31 34 36 34 36 33 33
20 30 29 28 28 26 25 25 24 22 29 27 26 26 26 30 29 28 29 26 23 21 20 20 21 22 24 24 25 26 26 26 28 29 31 31 30 31 32 32 35 34 33 34
26 29 28 28 26 26 24 31 30 28 25 21 24 20 22 27 27 27 27 25 24 21 20 20 21 22 25 25 28 27 29 29 30 28 28 27 28 29 31 32 33 33 32 31
21 27 29 29 29 28 28 33 30 30 26 23 23 21 20 26 25 25 25 25 25 22 22 22 22 20 22 23 28 30 31 31 28 27 27 30 29 31 32 32 30 30 31 31
29 30 28 29 30 29 30 28 27 28 25 20 19 19 19 24 24 25 24 25 25 24 23 22 21 21 22 28 30 31 28 28 29 29 26 26 25 25 28 28 28 30 31 33
26 28 26 27 27 30 28 24 21 20 22 19 20 18 18 23 21 24 24 23 24 23 22 21 21 22 24 27 29 29 29 29 28 26 26 25 24 24 25 26 29 29 31 31
21 22 25 26 26 24 27 24 20 12 17 12 20 15 15 19 18 18 24 23 23 23 20 20 21 24 25 26 27 28 29 26 26 26 25 22 21 26 27 29 29 30 31 32
12 21 23 20 21 22 23 16 20 12 12 9 13 19 18 16 16 16 19 20 21 20 21 22 23 25 25 26 27 27 25 25 24 21 19 20 23 25 27 28 29 31 31 31
15 7 19 21 21 23 20 22 16 18 9 9 11 13 14 14 14 15 17 18 20 22 22 23 24 24 24 24 25 24 24 22 19 19 21 23 24 26 28 29 29 30 30 30
15 10 12 14 17 19 18 13 15 15 16 11 9 11 12 17 16 15 16 17 21 23 23 23 23 23 24 25 24 24 22 19 19 21 23 25 26 28 28 29 29 30 31 31
18 16 11 11 14 17 17 15 15 18 12 17 19 17 13 14 14 15 16 18 21 23 25 25 24 24 24 23 24 22 19 18 21 23 25 26 28 29 29 30 30 31 31 32
23 12 11 12 19 19 8 11 14 15 22 14 14 11 12 14 14 17 17 18 20 20 21 24 23 23 23 24 23 19 18 21 23 25 26 27 29 30 29 30 30 30 30 30
26 19 16 17 14 19 13 16 15 12 18 14 17 15 16 17 17 16 17 18 19 20 20 22 24 24 24 24 20 18 20 23 25 26 27 28 29 29 31 30 30 30 30 30
23 18 19 19 20 19 17 16 16 12 14 13 13 14 15 16 16 16 17 22 21 21 21 23 24 24 24 20 19 21 23 24 25 26 27 28 30 30 29 29 30 29 30 29
23 17 20 18 18 17 15 18 18 18 17 16 15 15 19 21 20 20 21 23 23 22 23 25 25 24 21 21 22 23 24 25 27 27 27 29 29 28 29 30 30 30 32 32
24 22 21 18 24 21 17 20 20 18 18 18 15 18 22 21 23 22 22 23 24 23 25 25 25 22 22 23 23 24 24 27 27 27 27 28 28 28 30 31 30 31 32 31
23 20 22 20 22 16 19 21 20 21 21 24 24 25 26 26 26 24 24 24 24 25 25 25 24 23 24 25 25 25 27 26 27 27 27 28 28 29 31 30 30 31 33 35
22 22 21 18 19 22 20 19 19 17 20 28 27 28 28 28 26 25 25 25 24 26 26 25 24 24 24 24 25 26 26 27 27 27 28 28 29 30 30 30 32 34 35 36
23 24 22 22 14 14 22 22 22 23 19 29 28 27 27 28 24 26 27 28 26 27 27 25 25 24 24 24 25 25 26 27 27 28 29 29 29 29 31 33 34 35 35 36
21 22 19 19 17 24 28 23 25 16 19 29 28 28 28 27 28 28 31 30 29 28 27 26 24 24 24 25 25 25 27 27 28 29 29 30 29 32 33 34 35 36 37 38
23 21 22 21 19 19 26 24 20 24 29 28 27 28 28 30 31 32 31 30 30 28 26 25 24 24 25 25 25 27 27 29 29 29 31 31 31 33 33 34 36 37 38 38
21 25 25 26 25 28 26 25 28 28 26 27 28 29 31 31 30 31 30 29 28 26 25 25 25 25 25 24 26 27 27 28 29 30 31 32 32 32 33 36 37 37 38 37
25 25 25 24 24 24 25 26 27 28 28 29 30 30 30 30 30 30 30 29 28 26 25 26 25 25 24 26 26 27 27 29 30 31 32 32 32 35 37 38 38 37 37 37
26 26 23 23 24 25 26 26 28 29 29 29 30 30 30 30 30 30 29 29 27 26 27 26 26 26 26 27 26 27 29 31 32 33 32 32 33 37 37 37 37 38 39 42
28 26 23 23 24 24 24 27 28 28 28 28 29 30 30 30 30 30 30 29 27 26 26 27 27 27 27 27 26 28 31 31 33 33 32 34 37 37 37 36 36 41 43 43

GFSCGP_sfc_dewp_057.txt.gz
Dewpoint
32 22 13 18 21 17 18 17 16 18 25 28 28 28 28 29 29 29 28 26 24 21 20 20 21 21 22 24 24 24 25 26 27 28 27 27 28 28 29 31 32 31 33 33
24 20 19 23 27 25 23 20 18 22 29 27 26 26 27 28 29 29 29 27 24 21 19 19 20 20 22 22 23 24 25 25 28 29 29 29 28 29 31 33 30 32 32 32
19 24 27 25 26 24 25 21 22 22 26 25 25 24 25 28 30 29 29 27 25 21 19 19 20 20 21 22 23 24 25 26 28 29 30 29 28 29 29 29 30 32 31 31
23 26 26 26 24 23 21 28 28 28 24 20 25 19 22 24 27 28 27 26 25 22 20 20 20 21 21 23 25 26 27 27 29 28 27 25 26 26 28 29 32 30 29 29
22 26 27 27 26 28 25 30 28 28 24 25 21 18 17 25 24 26 27 27 25 23 21 21 21 21 22 23 25 27 28 30 30 27 28 28 26 29 29 28 26 26 29 30
26 29 27 28 28 28 30 24 25 28 24 18 18 15 15 22 23 24 27 27 27 24 22 21 22 22 23 25 27 30 30 31 29 29 27 25 25 24 24 23 25 28 30 31
25 27 25 27 26 28 24 17 15 13 19 14 21 17 16 18 18 20 22 27 27 26 22 22 22 22 23 25 27 31 31 29 28 26 25 24 22 21 21 24 27 28 30 30
19 19 24 23 23 22 24 18 15 9 16 20 18 17 17 17 16 20 24 26 26 26 23 22 23 22 23 25 28 29 28 28 25 23 20 20 22 25 26 28 28 29 30 31
15 16 21 20 21 23 22 21 21 15 13 10 12 12 17 15 15 19 21 24 26 26 24 23 23 22 22 25 26 27 28 24 20 19 21 22 24 25 27 27 28 30 31 31
12 9 19 20 20 22 20 20 15 15 4 6 11 9 15 13 13 15 18 20 23 24 23 22 22 23 24 25 25 24 22 19 19 22 23 24 25 25 27 28 29 30 30 31
12 9 9 13 15 14 18 16 16 16 16 11 8 6 14 14 15 15 15 16 19 20 22 22 22 23 25 24 24 21 19 20 21 23 24 25 26 27 28 29 30 30 31 31
16 11 8 8 13 17 18 13 14 11 7 14 15 18 19 13 15 15 15 18 20 21 23 24 24 23 23 24 21 18 20 22 23 25 25 26 27 28 28 29 29 30 30 29
15 6 3 7 16 19 8 11 17 20 19 14 12 11 13 17 16 16 17 17 19 20 21 22 23 23 24 21 19 20 22 23 24 25 26 27 27 27 28 28 29 30 29 28
21 15 9 10 16 18 14 14 13 13 15 9 12 10 14 16 17 17 21 22 22 23 24 24 23 24 23 20 20 22 23 24 25 26 27 27 27 28 28 29 30 29 28 29
18 5 17 17 18 19 18 17 16 13 13 11 12 14 15 17 18 20 22 23 23 24 24 24 24 25 22 21 22 23 24 24 25 27 27 27 28 28 29 29 29 29 29 30
21 12 19 15 23 22 21 20 20 20 17 15 14 15 22 23 23 23 23 23 23 23 23 24 25 24 22 22 23 23 24 25 26 26 26 27 28 28 28 29 29 29 29 28
21 21 19 17 20 21 15 18 19 19 18 17 14 18 24 24 24 24 24 23 23 24 24 25 25 25 23 23 24 24 24 25 25 26 27 27 27 28 28 29 29 29 29 30
22 21 21 18 17 10 9 21 21 21 24 25 25 25 27 26 27 28 27 24 24 25 26 26 26 24 24 25 25 25 25 25 26 27 27 27 28 28 28 29 30 30 30 31
23 22 21 16 17 14 18 18 19 19 19 26 24 26 27 28 28 25 26 26 26 29 29 27 25 25 24 24 25 25 25 26 27 26 27 27 28 28 29 30 30 31 32 33
23 23 19 20 10 8 9 21 21 21 18 27 27 26 26 26 20 23 26 29 30 31 30 27 25 24 24 24 25 25 26 26 26 26 27 28 28 29 30 31 32 32 33 36
19 20 18 19 15 20 22 24 24 15 17 28 26 25 25 25 26 27 31 31 31 31 29 25 24 24 24 25 25 25 25 25 26 27 28 29 30 31 32 31 32 35 38 38
21 19 18 19 16 13 27 22 19 23 27 26 26 27 28 29 30 31 31 31 31 30 26 25 24 24 25 24 25 25 25 25 27 28 29 30 31 32 30 32 36 38 38 37
21 21 22 21 21 25 26 25 27 27 26 26 26 27 29 29 29 30 31 30 30 28 25 25 25 25 25 25 26 25 25 26 28 29 30 30 30 30 32 34 37 37 37 37
26 26 25 24 24 25 25 27 27 27 27 28 28 29 29 29 30 30 30 30 30 27 25 26 26 25 25 26 26 26 26 28 29 29 30 31 29 32 32 36 38 37 37 37
27 25 23 23 24 24 26 26 27 29 29 29 30 29 29 30 29 30 30 30 29 26 26 26 26 26 27 27 27 26 27 29 29 30 31 32 32 33 34 36 38 38 39 40
28 25 24 23 25 25 24 27 29 28 29 30 30 29 30 29 30 30 30 30 28 27 27 26 27 27 27 27 27 27 29 29 30 31 30 31 33 34 35 37 36 40 41 41

GFSCGP_sfc_dewp_063.txt.gz
Dewpoint
31 26 27 30 31 21 21 19 18 18 23 26 27 28 29 30 32 32 32 29 26 23 24 24 25 26 26 26 27 27 28 28 30 31 31 32 33 32 33 34 31 33 33 33
31 24 30 33 31 30 24 19 19 23 28 28 28 27 29 30 31 32 31 30 28 25 21 22 24 26 25 25 26 26 27 30 29 33 33 32 31 32 33 37 33 34 32 32
23 28 27 27 26 23 26 22 22 21 26 26 27 27 25 25 29 30 31 32 31 27 22 21 22 25 28 26 27 26 26 28 31 32 34 33 33 34 34 33 33 34 31 31
25 28 26 26 25 25 24 29 27 27 25 20 25 18 23 20 26 25 28 30 30 29 25 23 23 25 25 28 29 27 27 27 29 33 33 32 33 32 32 33 33 31 29 29
25 29 28 28 27 28 26 31 28 26 24 22 22 19 18 24 25 23 22 28 29 29 27 23 22 25 23 26 27 28 27 28 31 31 34 34 32 33 32 30 29 28 29 31
29 30 28 29 28 30 30 23 26 29 25 18 18 17 14 19 19 20 19 23 29 28 26 25 23 24 25 28 30 31 29 30 33 35 32 34 33 29 27 27 27 29 30 31
24 27 26 29 27 29 25 27 22 14 17 13 21 18 18 20 18 17 21 25 28 28 27 26 25 25 26 30 31 31 33 33 32 31 30 28 28 26 26 27 28 29 29 30
17 16 26 24 26 25 24 26 20 8 10 17 21 19 18 18 17 22 26 28 29 28 27 26 26 28 27 29 30 31 33 33 29 26 23 24 27 30 28 29 29 29 30 30
19 21 23 20 23 25 24 23 22 17 13 11 14 12 17 16 16 17 19 22 24 25 25 25 25 25 25 27 29 31 31 28 23 22 24 24 25 27 29 29 30 31 30 30
18 15 18 21 24 23 25 22 18 18 9 3 8 11 15 15 16 17 19 21 24 25 25 24 25 26 26 26 26 24 24 22 23 24 25 26 26 26 29 29 29 29 29 30
17 17 16 20 20 20 21 19 18 18 14 10 8 8 13 16 16 16 18 21 23 25 25 25 24 25 26 24 22 20 22 23 24 25 26 26 27 27 28 28 28 29 29 28
19 15 10 13 16 19 21 18 17 18 11 14 14 16 17 16 16 18 19 22 24 26 26 25 25 25 25 23 21 22 23 24 26 26 26 26 28 28 27 27 27 26 27 28
17 11 6 9 17 20 15 15 18 19 20 17 14 12 14 18 17 19 23 24 25 26 26 26 25 25 25 23 21 22 24 25 25 25 26 27 27 27 27 26 26 26 27 28
22 14 10 12 17 20 15 13 18 16 17 13 15 13 13 17 19 22 23 24 24 26 27 28 29 27 26 25 21 22 24 24 26 26 27 27 26 27 27 27 27 27 27 28
17 9 16 17 18 19 18 16 15 14 13 12 14 13 15 18 22 22 23 24 24 25 27 28 29 28 28 26 24 23 25 25 25 26 26 26 27 27 27 27 27 28 29 29
22 17 20 17 21 21 21 22 20 18 16 14 15 16 18 22 23 23 24 25 25 25 26 27 28 29 29 28 25 25 25 25 25 25 25 27 26 27 27 27 28 29 30 30
21 22 22 22 19 19 18 19 22 21 20 19 17 21 24 24 25 25 27 27 26 26 27 28 29 30 30 26 25 24 24 25 24 25 25 25 26 26 27 28 29 30 31 31
22 22 22 22 17 15 17 23 23 21 21 23 23 26 27 26 27 28 28 27 27 28 29 30 30 31 28 26 25 25 25 25 25 24 24 25 26 26 27 29 30 30 31 32
24 23 22 22 17 12 13 21 22 21 19 27 26 27 27 27 25 23 27 28 29 30 30 31 31 29 26 25 26 25 25 26 25 24 24 26 26 27 29 30 30 31 32 32
22 22 21 20 16 12 10 20 23 24 20 27 27 28 25 26 21 23 25 29 30 30 31 31 30 25 24 25 25 25 26 25 24 24 25 26 27 28 30 30 31 31 31 34
19 20 21 21 19 19 19 22 25 18 19 29 27 26 27 25 26 27 30 30 30 31 31 31 25 25 25 26 25 26 26 25 25 26 27 27 28 30 31 32 31 33 34 35
20 21 19 21 20 15 25 24 21 26 29 28 27 28 28 28 30 30 30 30 31 31 31 27 26 26 26 26 26 26 26 26 26 27 28 28 29 30 30 31 32 32 35 37
21 20 22 22 21 23 28 27 29 29 28 28 28 29 28 29 28 30 30 30 30 31 31 27 26 27 27 26 27 26 27 27 27 28 28 28 29 29 30 31 33 36 37 36
24 25 25 25 23 24 27 28 28 28 28 29 30 29 29 28 29 29 30 30 30 31 30 27 27 27 26 27 27 27 27 27 28 28 28 29 28 29 30 31 35 36 36 36
23 25 24 24 25 26 26 27 29 29 30 30 30 30 30 29 29 29 30 30 30 30 30 28 28 27 27 28 28 28 27 29 29 28 28 27 28 28 30 32 36 37 38 39
27 25 24 22 24 25 25 27 30 29 29 30 29 29 30 30 30 30 30 30 30 30 30 29 29 28 28 28 28 28 28 29 30 28 28 28 32 32 33 36 36 40 41 41

GFSCGP_sfc_dewp_066.txt.gz
Dewpoint
30 39 41 38 35 35 33 29 28 21 23 24 23 24 25 27 31 32 32 30 30 31 32 28 28 27 27 27 27 27 27 26 28 30 30 30 31 31 32 33 31 32 32 32
30 32 39 35 24 23 21 22 24 23 26 26 25 25 25 28 29 31 31 31 30 30 28 27 26 27 26 26 27 26 27 29 29 32 32 31 30 32 33 37 34 34 32 31
38 35 24 27 30 32 29 27 23 18 26 26 26 19 24 24 27 28 29 32 31 31 27 26 25 27 29 27 28 27 26 29 31 32 34 35 35 37 35 35 34 34 30 30
23 26 27 24 22 21 20 24 24 25 23 15 24 8 20 20 25 22 22 30 31 33 30 27 26 27 28 29 30 28 28 27 30 34 35 35 34 34 34 35 35 32 29 29
24 27 27 24 22 24 25 29 27 27 24 22 22 18 16 24 22 19 23 28 31 32 32 27 26 28 27 30 31 31 28 28 31 30 36 37 36 35 35 33 31 29 30 31
28 28 27 27 29 28 30 26 28 28 25 19 18 18 14 20 18 19 25 28 30 30 31 29 27 27 28 30 33 34 30 29 32 36 35 38 38 35 32 30 29 30 31 30
26 26 26 28 27 28 25 24 15 15 18 12 21 19 19 20 19 23 27 28 29 29 30 30 28 28 28 31 33 33 33 33 32 34 35 34 35 31 29 29 29 29 29 30
20 21 25 23 25 22 25 24 13 8 8 15 21 17 20 17 21 23 27 29 29 29 29 29 29 31 30 31 31 32 30 33 33 32 31 28 29 31 30 30 30 29 29 29
14 18 20 21 23 25 25 23 23 17 16 13 14 15 17 16 17 20 23 26 27 26 27 27 27 27 28 28 28 30 31 32 30 26 26 25 26 28 30 30 29 30 29 27
19 17 19 20 22 23 25 23 20 20 11 8 6 10 13 16 16 18 20 23 25 26 25 26 26 28 27 28 28 27 28 27 25 26 27 27 28 27 29 29 28 28 28 29
17 17 15 19 21 22 21 21 19 19 16 8 5 8 16 17 17 18 19 23 25 26 25 25 25 26 28 26 26 24 24 24 26 27 28 28 28 27 27 26 26 27 26 25
16 19 13 12 14 18 20 19 19 14 12 15 16 13 15 17 18 19 21 24 26 27 27 26 27 26 26 26 26 26 26 26 28 28 27 27 28 28 26 25 23 22 23 24
18 13 9 13 16 16 15 17 18 19 20 17 12 12 16 17 19 20 22 24 26 26 27 26 26 25 26 26 26 24 25 27 27 27 27 27 27 26 25 23 23 22 21 22
23 15 10 11 17 18 14 14 17 16 18 13 14 13 15 18 19 22 24 24 24 26 27 28 29 27 27 27 27 26 25 25 27 27 28 28 26 25 25 24 23 22 22 23
19 8 10 12 14 17 16 15 15 15 14 12 13 13 14 17 19 22 24 24 25 25 26 27 28 28 27 27 28 28 26 26 26 26 26 26 25 24 24 24 24 24 25 26
20 18 18 16 19 20 19 19 17 15 14 14 14 17 19 19 21 22 23 25 25 25 26 27 27 27 28 29 29 27 27 26 26 25 25 25 24 24 25 24 24 26 28 30
17 23 23 21 20 19 19 20 22 21 21 20 19 20 22 22 23 24 26 26 26 26 27 27 27 28 29 29 27 26 25 26 25 24 23 23 22 24 24 24 25 28 29 30
23 23 26 27 19 17 17 21 21 22 21 23 22 23 26 25 26 27 26 27 25 26 26 27 28 29 31 28 26 26 26 26 25 23 22 22 23 24 24 25 27 28 29 30
25 24 26 27 19 14 12 15 20 20 14 24 23 26 26 28 27 25 27 28 27 27 27 29 30 30 29 27 27 27 27 26 24 23 22 23 24 24 25 28 29 30 31 31
24 24 23 21 32 26 9 20 22 23 15 26 26 27 27 26 23 24 25 26 27 27 29 31 31 27 26 27 27 27 26 25 24 24 24 25 25 25 26 29 30 31 33 33
20 22 23 22 26 18 18 22 24 15 18 28 27 28 27 26 26 27 27 26 28 29 30 32 30 28 27 28 27 26 25 25 25 25 25 26 25 25 27 29 30 31 32 32
22 26 22 22 25 21 23 23 21 26 30 30 28 28 28 28 27 26 27 28 29 29 30 31 29 29 29 28 27 25 25 27 26 26 27 26 25 25 27 29 29 30 32 36
21 20 23 25 23 23 26 27 28 30 30 29 28 29 27 26 25 27 27 27 28 29 30 31 30 29 29 28 27 25 27 27 26 26 27 24 24 25 28 28 31 34 35 36
24 25 25 26 24 22 25 28 28 29 28 29 29 28 28 24 26 25 26 27 28 29 30 31 30 29 29 29 28 27 28 27 27 26 26 23 24 27 29 29 32 36 36 36
22 25 23 23 25 27 28 28 29 29 30 29 29 28 27 27 26 27 27 28 29 30 31 31 30 30 30 29 28 27 29 29 27 27 25 23 25 29 30 31 35 37 38 39
26 23 22 16 23 24 25 28 29 30 28 27 26 27 28 29 28 29 29 30 30 31 32 31 31 31 30 29 28 28 29 28 28 27 24 25 29 30 31 35 34 39 40 40

GFSCGP_sfc_dewp_069.txt.gz
Dewpoint
36 39 38 40 38 36 37 37 37 40 24 25 28 29 28 25 30 32 30 28 28 31 35 34 34 31 28 27 26 27 27 24 26 29 30 31 32 31 32 34 30 31 32 31
33 37 39 40 40 38 34 34 36 33 26 26 37 32 26 24 28 30 30 30 29 29 31 32 31 30 27 26 26 26 26 27 28 31 31 31 30 32 33 38 35 35 33 32
34 35 35 42 32 30 33 33 32 29 30 31 26 25 20 26 26 26 27 31 30 30 29 30 29 29 30 28 28 27 26 28 29 31 34 35 34 38 37 36 37 36 33 31
37 32 31 33 37 34 35 32 30 26 22 19 23 14 19 20 24 21 24 28 31 32 31 30 29 29 29 30 30 28 28 26 29 33 34 36 35 35 35 36 36 35 33 30
27 24 30 34 29 33 32 27 24 25 21 20 18 19 12 22 22 21 26 30 32 32 33 30 29 30 28 31 31 30 28 28 30 29 36 39 38 37 36 35 35 33 32 32
27 30 28 29 31 28 29 27 27 26 22 17 12 18 12 19 19 21 27 30 31 31 32 31 29 29 30 32 34 35 32 29 31 34 34 37 40 37 37 35 33 32 32 33
25 25 28 28 28 29 27 23 18 20 22 13 18 16 16 20 22 26 28 29 30 31 31 30 28 29 30 33 35 35 35 33 31 31 34 35 38 38 35 32 31 31 31 32
21 22 26 26 26 23 24 22 15 11 9 13 21 15 19 20 23 27 29 29 30 30 31 31 31 32 32 32 33 33 32 31 32 32 33 34 33 34 32 32 32 31 31 31
22 22 23 23 25 25 24 19 23 17 15 12 10 17 17 18 21 24 26 27 28 28 29 29 29 29 29 30 31 31 31 32 33 31 30 27 27 29 31 32 31 32 31 30
18 19 22 22 24 25 26 24 19 18 12 13 10 9 12 18 18 19 21 24 25 26 26 27 27 28 27 28 28 28 28 28 28 27 27 28 29 29 30 30 30 31 29 30
19 18 19 21 23 22 23 21 20 21 16 11 8 12 17 17 18 18 21 24 25 25 25 24 25 26 27 27 26 25 25 25 26 27 29 29 29 29 29 29 29 29 28 25
19 21 16 16 16 18 22 20 20 17 14 12 14 13 15 18 18 20 21 25 26 27 27 26 26 25 25 26 26 26 26 26 28 29 28 28 29 30 29 28 27 24 23 23
20 16 12 14 16 15 15 17 17 17 20 16 14 14 15 18 19 20 22 24 26 26 26 26 26 26 26 25 26 26 26 27 28 28 28 29 29 30 29 27 24 23 22 21
30 17 15 15 20 16 13 14 15 15 16 15 15 15 17 19 20 20 23 24 24 26 26 27 29 27 25 24 23 25 26 26 28 28 29 30 29 29 27 24 24 23 22 21
23 14 9 10 12 13 13 14 14 14 14 13 15 14 15 16 19 20 23 24 24 25 25 27 27 25 23 23 24 26 27 28 27 27 28 29 28 26 24 24 24 23 22 23
19 16 14 12 15 16 16 17 15 15 15 14 15 17 19 20 19 20 22 23 24 25 26 26 25 24 24 25 26 27 27 27 27 27 27 28 24 24 24 24 23 23 24 25
15 20 20 19 20 21 20 21 22 21 20 19 16 21 22 21 21 22 23 25 25 26 26 24 23 24 26 27 27 27 27 27 27 27 25 23 23 23 24 23 23 26 26 26
20 22 27 28 22 19 19 21 20 20 19 22 22 23 24 24 24 24 27 26 25 25 24 24 24 26 28 29 28 27 28 28 27 24 22 23 22 23 24 24 25 25 26 28
26 24 27 28 22 14 13 17 18 17 12 21 22 23 25 27 28 27 26 26 25 24 24 24 26 27 27 28 28 28 29 28 25 23 23 23 23 24 24 25 25 26 28 29
23 25 25 22 34 25 13 19 21 22 15 23 23 25 25 27 22 26 26 24 23 24 25 27 28 27 26 27 28 29 28 26 24 25 25 24 24 25 25 25 27 28 29 30
21 23 24 23 26 18 18 21 25 13 21 26 25 25 27 27 28 28 23 22 24 25 26 28 29 28 28 28 28 28 27 24 25 26 25 25 26 24 24 25 27 29 29 29
23 26 23 21 25 24 23 24 19 28 29 28 28 28 29 29 26 24 23 24 25 26 27 27 29 28 28 29 28 27 27 26 27 27 26 26 25 23 22 26 29 28 29 35
21 16 21 23 24 24 25 28 31 29 28 29 29 30 28 26 22 23 24 24 25 26 27 27 28 29 29 29 29 28 29 27 27 27 26 25 24 22 23 27 30 32 35 35
20 24 23 26 19 23 24 25 28 29 28 30 29 30 26 23 22 22 23 24 25 26 27 29 29 28 28 29 30 30 28 27 27 26 26 25 23 23 25 29 30 35 36 36
22 24 18 20 20 26 27 26 27 29 29 29 28 26 24 23 23 23 24 25 26 27 29 29 30 30 30 30 30 30 29 29 28 26 26 25 23 25 29 30 32 37 38 38
24 18 19 14 19 21 23 27 29 30 30 28 25 24 25 25 24 25 26 27 28 28 30 30 30 31 30 30 30 30 30 29 28 27 27 25 26 28 30 33 34 36 39 40

GFSCGP_sfc_dewp_072.txt.gz
Dewpoint
39 40 40 37 41 40 38 39 39 38 36 43 44 39 39 38 32 33 32 30 29 35 38 39 38 35 30 28 28 29 28 25 29 30 33 33 34 34 35 36 31 31 33 33
38 39 39 40 37 38 37 37 41 41 30 32 37 40 41 40 32 32 30 29 30 30 34 35 35 32 28 27 27 28 27 27 31 33 34 35 35 37 37 40 36 35 34 34
37 36 38 37 38 37 37 36 37 34 32 38 38 32 31 28 28 29 28 31 31 31 30 32 32 31 31 28 29 27 27 28 32 33 36 36 38 38 38 38 38 38 35 33
34 37 35 42 39 38 35 35 37 34 31 31 28 23 25 26 27 25 28 31 32 33 32 32 31 31 30 31 31 29 29 28 30 34 35 36 38 37 39 40 41 40 35 33
36 36 38 36 38 38 34 35 37 37 29 25 26 23 22 24 25 25 29 31 32 33 33 32 31 31 30 31 32 30 29 28 30 32 37 39 39 40 41 38 36 36 35 33
31 31 36 36 30 30 32 31 30 32 27 21 19 20 20 22 21 26 29 30 32 32 32 31 31 31 31 35 36 35 32 31 32 33 33 38 38 39 39 39 37 37 36 36
27 28 32 34 34 35 32 28 27 26 25 22 19 18 21 21 26 27 29 29 31 31 32 30 31 31 33 35 36 36 36 36 33 32 34 35 39 39 38 35 34 33 34 34
27 24 30 33 31 28 29 28 23 19 20 21 24 18 20 23 28 29 29 30 30 32 33 32 32 31 31 33 35 36 34 34 34 33 34 34 34 36 35 34 34 33 33 34
30 24 25 25 27 27 27 26 29 20 15 14 17 19 20 22 25 27 27 29 31 30 30 30 30 30 31 31 31 31 32 33 33 32 31 29 29 32 33 32 31 34 33 33
23 22 25 24 28 30 29 26 24 22 15 15 14 18 18 20 22 24 25 26 28 28 28 29 28 29 28 29 28 28 28 28 28 28 28 29 29 29 30 31 31 31 31 31
26 22 24 26 26 26 26 24 24 23 21 15 13 17 18 20 20 21 23 25 26 26 26 26 26 28 28 27 26 26 26 26 27 29 30 29 30 29 29 30 30 30 30 28
30 27 20 20 19 21 24 24 22 21 17 17 16 19 17 19 20 22 24 26 27 28 28 27 26 26 26 27 28 27 26 26 28 29 29 28 29 30 30 29 28 27 24 25
28 22 17 19 21 21 20 23 23 20 23 20 18 17 17 19 20 21 24 26 27 28 28 27 27 27 26 25 24 25 27 27 28 29 29 29 30 30 30 29 26 24 23 23
32 25 19 20 23 21 16 17 17 18 18 15 18 18 18 19 21 21 24 26 26 27 27 29 29 27 25 24 23 25 26 27 29 29 29 29 30 30 28 26 25 25 24 23
27 22 14 14 14 14 15 17 17 15 15 15 17 17 18 20 22 21 24 25 24 26 27 28 27 25 24 24 24 26 27 28 28 28 28 29 29 26 25 25 25 25 24 23
24 23 19 15 16 19 18 18 17 17 16 15 17 18 22 21 20 19 22 24 24 25 27 26 25 24 24 25 26 27 27 27 27 27 28 28 26 25 26 25 25 24 25 25
21 23 23 23 24 23 22 23 23 21 21 22 18 25 23 22 22 22 22 25 25 26 25 24 24 24 26 27 28 27 27 28 28 28 26 24 24 25 25 25 24 25 25 26
23 25 29 31 26 20 24 23 23 24 23 24 25 27 28 25 24 24 27 26 26 25 24 24 24 26 28 28 29 28 29 29 29 26 24 24 24 24 25 25 25 25 25 26
27 28 30 30 26 22 19 21 22 19 20 25 24 26 26 27 28 26 27 26 25 24 24 24 26 27 27 27 28 28 29 29 28 25 24 25 25 25 26 26 26 25 26 29
26 26 27 26 28 23 21 21 25 26 18 26 24 26 26 29 26 27 26 24 24 24 26 27 28 28 27 28 28 29 29 28 26 25 27 26 26 26 26 26 25 26 29 28
24 25 26 26 29 26 22 23 28 19 24 27 26 26 28 28 30 28 24 23 24 26 27 28 28 29 28 28 29 28 28 27 27 27 28 27 27 27 26 24 25 29 29 28
25 29 26 23 25 21 26 26 22 29 29 29 28 30 33 30 28 26 25 25 26 27 28 28 28 29 29 29 29 28 28 29 28 28 28 27 27 25 24 23 28 29 29 33
25 24 27 31 30 28 27 31 33 32 31 30 30 30 32 29 26 25 25 24 26 27 27 28 29 29 29 29 29 29 30 30 28 28 28 27 26 25 23 27 28 29 32 34
25 27 26 24 25 26 26 28 31 31 30 31 33 31 30 26 24 23 24 25 25 27 28 29 29 29 29 30 30 30 30 29 28 28 27 27 27 25 26 29 29 32 35 36
26 25 21 20 22 27 27 27 30 31 31 31 32 29 27 26 25 24 25 26 27 28 30 30 30 30 31 31 31 31 31 30 29 28 27 27 26 26 27 28 31 35 37 37
27 24 22 23 22 26 28 30 30 32 31 30 28 26 26 26 25 26 26 28 29 30 31 31 31 31 32 32 31 31 32 30 30 28 28 28 28 28 28 31 32 35 36 37

GFSCGP_sfc_dewp_075.txt.gz
Dewpoint
38 38 39 43 42 41 39 37 38 42 48 46 48 45 43 39 37 34 29 31 30 38 41 44 37 32 30 29 28 28 27 25 27 29 30 31 31 32 33 35 32 33 34 34
38 37 40 42 43 42 41 40 41 40 35 34 41 38 38 41 39 31 30 29 31 30 38 38 32 29 28 28 28 28 26 26 28 31 32 32 32 35 35 37 33 34 33 33
36 37 42 43 39 39 40 39 41 40 40 33 35 33 33 35 30 29 29 31 32 32 34 34 31 28 27 27 28 27 27 26 31 32 35 36 37 37 37 37 37 36 34 34
39 42 39 40 39 39 37 39 37 31 32 31 33 25 23 27 25 28 30 31 32 33 33 33 31 29 27 27 29 28 28 28 31 32 35 34 36 34 36 37 39 38 37 34
40 41 39 39 40 42 39 39 36 33 31 24 26 21 20 26 25 28 29 30 31 32 33 32 31 29 28 30 29 29 28 28 30 33 35 37 37 39 40 39 37 37 36 34
39 42 40 33 36 39 35 32 34 28 25 19 21 22 18 22 23 28 29 30 31 32 31 31 31 30 30 31 31 31 31 31 31 33 35 36 35 36 38 38 36 37 36 36
33 32 35 42 34 38 34 30 26 24 20 18 19 20 18 22 26 28 29 30 31 31 30 31 31 32 35 35 36 35 34 34 33 32 32 34 37 37 37 35 34 32 33 33
28 24 31 37 37 27 32 27 26 20 22 22 19 16 19 25 28 29 29 30 31 32 31 30 30 30 31 32 33 34 34 34 34 33 33 35 35 36 35 33 33 32 32 33
33 26 30 30 33 32 28 25 27 18 16 15 20 18 20 27 28 28 29 29 30 29 29 29 29 29 29 29 29 30 32 32 30 28 29 28 29 31 32 31 30 32 33 33
31 21 26 28 27 28 27 26 17 20 9 14 15 17 18 22 25 26 26 27 28 28 27 27 27 28 27 27 26 26 26 26 27 28 29 29 29 29 30 30 30 30 30 31
26 27 25 25 25 24 21 23 22 20 21 15 11 15 19 21 24 25 25 26 27 27 27 27 27 26 27 26 25 26 26 26 28 30 29 28 28 29 29 30 30 29 28 26
25 24 19 19 18 20 22 22 20 19 14 16 18 17 18 21 23 24 24 26 27 27 27 26 26 26 27 27 27 26 26 26 28 29 28 28 29 30 30 30 28 26 24 25
27 22 16 14 17 16 17 20 21 21 23 17 16 15 18 19 21 24 25 26 27 27 27 27 27 25 24 23 23 25 26 28 28 29 29 29 29 29 30 27 25 24 24 24
31 23 17 20 20 19 13 15 19 18 17 14 16 16 17 19 21 23 25 26 27 27 27 29 26 24 23 23 24 25 27 28 28 28 28 28 29 29 26 25 25 25 25 24
24 18 13 14 14 14 15 17 17 14 15 13 16 16 18 19 20 21 25 26 26 27 28 27 25 23 23 24 26 26 27 28 27 27 28 29 28 25 25 25 25 25 25 24
22 20 17 13 16 17 18 18 18 18 16 15 17 18 22 20 21 21 23 24 25 26 26 24 24 23 24 26 26 26 27 27 28 28 28 27 25 25 25 25 25 25 25 25
18 20 23 22 22 22 20 23 21 20 18 18 17 20 21 21 21 22 23 24 26 25 24 23 23 24 26 27 27 27 27 28 28 28 27 24 24 25 25 25 25 25 25 25
21 23 28 27 24 18 21 22 23 23 23 26 26 25 25 23 25 27 27 26 25 24 23 23 25 26 27 27 28 28 28 29 29 28 25 24 25 25 25 25 26 26 26 25
26 28 27 25 25 22 18 19 19 17 19 23 25 27 26 28 27 26 25 25 24 23 24 26 27 28 27 27 27 28 28 29 28 27 25 26 26 26 26 26 26 26 25 26
25 25 27 24 20 16 18 21 23 20 7 25 25 26 27 27 23 26 24 24 25 26 27 27 28 28 28 28 28 28 28 28 27 27 27 27 27 27 27 27 26 25 28 29
22 23 22 24 21 24 25 22 26 -2 7 24 25 26 29 27 27 27 25 24 25 26 27 28 28 28 29 29 29 28 29 28 28 28 28 28 28 27 27 26 24 29 29 29
22 23 22 23 21 17 25 23 9 17 28 27 28 31 31 29 27 26 26 26 27 27 28 28 28 28 29 29 29 28 28 29 30 28 28 28 28 27 26 25 28 28 28 30
21 26 26 24 24 26 26 25 30 31 28 28 29 32 30 28 26 26 25 25 25 26 27 28 28 29 29 29 30 29 30 30 29 28 28 28 27 27 25 28 28 28 31 32
24 25 22 21 20 25 25 29 30 29 30 31 31 32 29 25 26 24 25 25 25 27 27 28 29 29 29 30 31 30 31 30 28 28 28 27 28 29 27 28 28 30 32 35
22 22 20 20 19 25 25 26 30 30 32 32 30 28 27 26 25 25 26 26 27 28 29 30 30 30 31 32 32 31 31 30 29 29 28 28 29 27 27 28 30 33 36 37
25 22 19 17 20 23 25 28 32 31 31 30 27 25 26 26 26 26 26 27 28 29 30 30 31 31 32 32 32 32 32 31 30 29 29 29 30 28 28 30 31 35 36 36